Time,TemperatureF,DewpointF,PressureIn,WindDirection,WindDirectionDegrees,WindSpeedMPH,WindSpeedGustMPH,Humidity,HourlyPrecipIn,Conditions,Clouds,dailyrainin,SoftwareType,DateUTC
2013-05-04 00:00:00,52.8,44.8,30.16,North,5,0.0,18.0,74,0.00,,---,0.00,VWS V13.01,2013-05-04 04:00:00,
2013-05-04 00:01:00,52.7,44.7,30.16,East,82,1.0,18.0,74,0.00,,---,0.00,VWS V13.01,2013-05-04 04:01:00,
2013-05-04 00:06:00,52.5,44.5,30.16,SW,215,4.0,10.0,74,0.00,,---,0.00,VWS V13.01,2013-05-04 04:06:00,
2013-05-04 00:11:00,52.3,44.3,30.16,ENE,78,7.0,14.0,74,0.00,,---,0.00,VWS V13.01,2013-05-04 04:11:00,
2013-05-04 00:16:00,52.1,44.4,30.16,NE,42,2.0,14.0,75,0.00,,---,0.00,VWS V13.01,2013-05-04 04:16:00,
2013-05-04 00:21:00,51.9,44.2,30.16,ENE,57,0.0,14.0,75,0.00,,---,0.00,VWS V13.01,2013-05-04 04:21:00,
2013-05-04 00:22:00,51.9,44.2,30.16,ENE,57,0.0,14.0,75,0.00,,---,0.00,VWS V13.01,2013-05-04 04:22:00,
2013-05-04 00:26:00,51.8,44.5,30.16,ENE,74,0.0,14.0,76,0.00,,---,0.00,VWS V13.01,2013-05-04 04:26:00,
2013-05-04 00:27:00,51.7,44.4,30.16,ENE,74,0.0,14.0,76,0.00,,---,0.00,VWS V13.01,2013-05-04 04:27:00,
2013-05-04 00:31:00,51.6,44.3,30.16,NNE,29,0.0,0.0,76,0.00,,---,0.00,VWS V13.01,2013-05-04 04:31:00,
2013-05-04 00:32:00,51.6,44.3,30.16,NNE,29,0.0,0.0,76,0.00,,---,0.00,VWS V13.01,2013-05-04 04:32:00,
2013-05-04 00:36:00,51.5,44.2,30.16,NE,49,3.0,10.0,76,0.00,,---,0.00,VWS V13.01,2013-05-04 04:36:00,
2013-05-04 00:37:00,51.5,44.2,30.16,NE,49,2.0,10.0,76,0.00,,---,0.00,VWS V13.01,2013-05-04 04:37:00,
2013-05-04 00:41:00,51.3,44.3,30.16,ESE,109,3.0,10.0,77,0.00,,---,0.00,VWS V13.01,2013-05-04 04:41:00,
2013-05-04 00:42:00,51.3,44.3,30.16,East,86,3.0,10.0,77,0.00,,---,0.00,VWS V13.01,2013-05-04 04:42:00,
2013-05-04 00:47:00,51.1,44.2,30.16,ENE,71,3.0,11.0,77,0.00,,---,0.00,VWS V13.01,2013-05-04 04:47:00,
2013-05-04 00:48:00,51.1,44.2,30.16,NE,45,3.0,11.0,77,0.00,,---,0.00,VWS V13.01,2013-05-04 04:48:00,
2013-05-04 00:52:00,51.0,44.0,30.16,East,87,0.0,11.0,77,0.00,,---,0.00,VWS V13.01,2013-05-04 04:52:00,
2013-05-04 00:53:00,51.0,44.0,30.16,ENE,71,4.0,11.0,77,0.00,,---,0.00,VWS V13.01,2013-05-04 04:53:00,
2013-05-04 00:57:00,50.8,43.9,30.16,ENE,59,2.0,11.0,77,0.00,,---,0.00,VWS V13.01,2013-05-04 04:57:00,
2013-05-04 00:58:00,50.8,43.9,30.16,ENE,59,0.0,11.0,77,0.00,,---,0.00,VWS V13.01,2013-05-04 04:58:00,
2013-05-04 01:02:00,50.7,44.1,30.16,NE,36,3.0,8.0,78,0.00,,---,0.00,VWS V13.01,2013-05-04 05:02:00,
2013-05-04 01:03:00,50.7,44.1,30.16,NE,47,1.0,8.0,78,0.00,,---,0.00,VWS V13.01,2013-05-04 05:03:00,
2013-05-04 01:07:00,50.6,44.0,30.15,ENE,74,4.0,9.0,78,0.00,,---,0.00,VWS V13.01,2013-05-04 05:07:00,
2013-05-04 01:08:00,50.5,43.9,30.15,East,80,0.0,9.0,78,0.00,,---,0.00,VWS V13.01,2013-05-04 05:08:00,
2013-05-04 01:12:00,50.5,43.9,30.15,East,86,0.0,9.0,78,0.00,,---,0.00,VWS V13.01,2013-05-04 05:12:00,
2013-05-04 01:13:00,50.4,43.8,30.15,East,86,0.0,9.0,78,0.00,,---,0.00,VWS V13.01,2013-05-04 05:13:00,
2013-05-04 01:17:00,50.4,43.8,30.15,NE,48,1.0,9.0,78,0.00,,---,0.00,VWS V13.01,2013-05-04 05:17:00,
2013-05-04 01:18:00,50.3,43.7,30.15,NNE,24,9.0,9.0,78,0.00,,---,0.00,VWS V13.01,2013-05-04 05:18:00,
2013-05-04 01:22:00,50.2,43.6,30.15,East,81,2.0,9.0,78,0.00,,---,0.00,VWS V13.01,2013-05-04 05:22:00,
2013-05-04 01:23:00,50.2,43.6,30.15,East,81,0.0,9.0,78,0.00,,---,0.00,VWS V13.01,2013-05-04 05:23:00,
2013-05-04 01:27:00,50.0,43.8,30.15,NE,55,0.0,12.0,79,0.00,,---,0.00,VWS V13.01,2013-05-04 05:27:00,
2013-05-04 01:28:00,50.0,43.8,30.15,ENE,60,2.0,12.0,79,0.00,,---,0.00,VWS V13.01,2013-05-04 05:28:00,
2013-05-04 01:32:00,49.9,43.7,30.15,ENE,67,2.0,7.0,79,0.00,,---,0.00,VWS V13.01,2013-05-04 05:32:00,
2013-05-04 01:33:00,49.9,43.7,30.15,East,94,1.0,7.0,79,0.00,,---,0.00,VWS V13.01,2013-05-04 05:33:00,
2013-05-04 01:34:00,49.9,43.7,30.15,NE,41,2.0,7.0,79,0.00,,---,0.00,VWS V13.01,2013-05-04 05:34:00,
2013-05-04 01:37:00,49.8,43.6,30.14,East,88,1.0,7.0,79,0.00,,---,0.00,VWS V13.01,2013-05-04 05:37:00,
2013-05-04 01:38:00,49.8,43.6,30.14,ENE,71,4.0,7.0,79,0.00,,---,0.00,VWS V13.01,2013-05-04 05:38:00,
2013-05-04 01:39:00,49.8,43.6,30.14,ENE,69,0.0,7.0,79,0.00,,---,0.00,VWS V13.01,2013-05-04 05:39:00,
2013-05-04 01:42:00,49.7,43.5,30.14,ENE,57,7.0,7.0,79,0.00,,---,0.00,VWS V13.01,2013-05-04 05:42:00,
2013-05-04 01:43:00,49.7,43.5,30.14,ENE,57,0.0,7.0,79,0.00,,---,0.00,VWS V13.01,2013-05-04 05:43:00,
2013-05-04 01:44:00,49.7,43.5,30.14,ENE,60,3.0,7.0,79,0.00,,---,0.00,VWS V13.01,2013-05-04 05:44:00,
2013-05-04 01:47:00,49.6,43.7,30.14,ENE,78,0.0,11.0,80,0.00,,---,0.00,VWS V13.01,2013-05-04 05:47:00,
2013-05-04 01:48:00,49.6,43.7,30.14,East,83,0.0,11.0,80,0.00,,---,0.00,VWS V13.01,2013-05-04 05:48:00,
2013-05-04 01:49:00,49.6,43.7,30.14,East,80,0.0,11.0,80,0.00,,---,0.00,VWS V13.01,2013-05-04 05:49:00,
2013-05-04 01:53:00,49.5,43.6,30.14,East,84,5.0,11.0,80,0.00,,---,0.00,VWS V13.01,2013-05-04 05:53:00,
2013-05-04 01:54:00,49.5,43.6,30.14,NE,55,0.0,11.0,80,0.00,,---,0.00,VWS V13.01,2013-05-04 05:54:00,
2013-05-04 01:58:00,49.5,43.6,30.14,ENE,73,5.0,11.0,80,0.00,,---,0.00,VWS V13.01,2013-05-04 05:58:00,
2013-05-04 01:59:00,49.5,43.9,30.14,NNE,30,1.0,11.0,81,0.00,,---,0.00,VWS V13.01,2013-05-04 05:59:00,
2013-05-04 02:03:00,49.5,43.9,30.14,ENE,69,3.0,6.0,81,0.00,,---,0.00,VWS V13.01,2013-05-04 06:03:00,
2013-05-04 02:04:00,49.5,43.9,30.14,ENE,57,4.0,6.0,81,0.00,,---,0.00,VWS V13.01,2013-05-04 06:04:00,
2013-05-04 02:05:00,49.5,43.9,30.14,NE,38,3.0,10.0,81,0.00,,---,0.00,VWS V13.01,2013-05-04 06:05:00,
2013-05-04 02:08:00,49.5,43.9,30.14,East,84,3.0,10.0,81,0.00,,---,0.00,VWS V13.01,2013-05-04 06:08:00,
2013-05-04 02:09:00,49.4,43.8,30.14,NNE,23,2.0,10.0,81,0.00,,---,0.00,VWS V13.01,2013-05-04 06:09:00,
2013-05-04 02:10:00,49.5,43.9,30.14,ENE,59,4.0,10.0,81,0.00,,---,0.00,VWS V13.01,2013-05-04 06:10:00,
2013-05-04 02:13:00,49.4,43.8,30.13,NE,53,0.0,10.0,81,0.00,,---,0.00,VWS V13.01,2013-05-04 06:13:00,
2013-05-04 02:14:00,49.5,43.9,30.13,NE,55,2.0,10.0,81,0.00,,---,0.00,VWS V13.01,2013-05-04 06:14:00,
2013-05-04 02:15:00,49.5,43.9,30.13,ENE,76,6.0,10.0,81,0.00,,---,0.00,VWS V13.01,2013-05-04 06:15:00,
2013-05-04 02:18:00,49.5,43.9,30.13,NE,53,0.0,10.0,81,0.00,,---,0.00,VWS V13.01,2013-05-04 06:18:00,
2013-05-04 02:19:00,49.5,43.9,30.13,ENE,57,3.0,10.0,81,0.00,,---,0.00,VWS V13.01,2013-05-04 06:19:00,
2013-05-04 02:20:00,49.5,44.2,30.13,ESE,110,0.0,10.0,82,0.00,,---,0.00,VWS V13.01,2013-05-04 06:20:00,
2013-05-04 02:23:00,49.5,44.2,30.13,ENE,64,0.0,10.0,82,0.00,,---,0.00,VWS V13.01,2013-05-04 06:23:00,
2013-05-04 02:24:00,49.5,44.2,30.13,ENE,61,1.0,10.0,82,0.00,,---,0.00,VWS V13.01,2013-05-04 06:24:00,
2013-05-04 02:25:00,49.5,44.2,30.13,ENE,63,3.0,10.0,82,0.00,,---,0.00,VWS V13.01,2013-05-04 06:25:00,
2013-05-04 02:26:00,49.5,44.2,30.13,ENE,65,4.0,10.0,82,0.00,,---,0.00,VWS V13.01,2013-05-04 06:26:00,
2013-05-04 02:29:00,49.4,44.1,30.13,ENE,57,0.0,10.0,82,0.00,,---,0.00,VWS V13.01,2013-05-04 06:29:00,
2013-05-04 02:30:00,49.5,44.2,30.12,NE,50,0.0,10.0,82,0.00,,---,0.00,VWS V13.01,2013-05-04 06:30:00,
2013-05-04 02:31:00,49.5,44.2,30.12,NE,49,0.0,10.0,82,0.00,,---,0.00,VWS V13.01,2013-05-04 06:31:00,
2013-05-04 02:34:00,49.4,44.1,30.12,East,83,3.0,7.0,82,0.00,,---,0.00,VWS V13.01,2013-05-04 06:34:00,
2013-05-04 02:35:00,49.4,44.1,30.12,East,84,0.0,7.0,82,0.00,,---,0.00,VWS V13.01,2013-05-04 06:35:00,
2013-05-04 02:36:00,49.5,44.2,30.12,East,80,0.0,7.0,82,0.00,,---,0.00,VWS V13.01,2013-05-04 06:36:00,
2013-05-04 02:39:00,49.4,44.1,30.12,ENE,57,0.0,16.0,82,0.00,,---,0.00,VWS V13.01,2013-05-04 06:39:00,
2013-05-04 02:40:00,49.4,44.1,30.12,NE,49,10.0,16.0,82,0.00,,---,0.00,VWS V13.01,2013-05-04 06:40:00,
2013-05-04 02:41:00,49.4,44.1,30.12,East,80,2.0,16.0,82,0.00,,---,0.00,VWS V13.01,2013-05-04 06:41:00,
2013-05-04 02:42:00,49.4,44.1,30.12,NE,36,6.0,16.0,82,0.00,,---,0.00,VWS V13.01,2013-05-04 06:42:00,
2013-05-04 02:44:00,49.4,44.1,30.12,ENE,72,7.0,16.0,82,0.00,,---,0.00,VWS V13.01,2013-05-04 06:44:00,
2013-05-04 02:45:00,49.4,44.1,30.12,ENE,59,3.0,16.0,82,0.00,,---,0.00,VWS V13.01,2013-05-04 06:45:00,
2013-05-04 02:46:00,49.4,44.1,30.12,NE,49,5.0,16.0,82,0.00,,---,0.00,VWS V13.01,2013-05-04 06:46:00,
2013-05-04 02:47:00,49.4,44.1,30.12,ENE,59,1.0,16.0,82,0.00,,---,0.00,VWS V13.01,2013-05-04 06:47:00,
2013-05-04 02:49:00,49.4,44.5,30.12,ENE,65,5.0,16.0,83,0.00,,---,0.00,VWS V13.01,2013-05-04 06:49:00,
2013-05-04 02:50:00,49.3,44.4,30.12,East,79,0.0,16.0,83,0.00,,---,0.00,VWS V13.01,2013-05-04 06:50:00,
2013-05-04 02:51:00,49.4,44.5,30.12,North,360,8.0,16.0,83,0.00,,---,0.00,VWS V13.01,2013-05-04 06:51:00,
2013-05-04 02:52:00,49.3,44.4,30.12,NE,44,1.0,16.0,83,0.00,,---,0.00,VWS V13.01,2013-05-04 06:52:00,
2013-05-04 02:54:00,49.3,44.4,30.12,NE,42,0.0,16.0,83,0.00,,---,0.00,VWS V13.01,2013-05-04 06:54:00,
2013-05-04 02:55:00,49.3,44.4,30.12,ESE,106,6.0,16.0,83,0.00,,---,0.00,VWS V13.01,2013-05-04 06:55:00,
2013-05-04 02:56:00,49.3,44.4,30.12,ENE,73,2.0,16.0,83,0.00,,---,0.00,VWS V13.01,2013-05-04 06:56:00,
2013-05-04 02:57:00,49.3,44.4,30.12,East,87,2.0,16.0,83,0.00,,---,0.00,VWS V13.01,2013-05-04 06:57:00,
2013-05-04 03:00:00,49.3,44.4,30.12,ENE,59,0.0,16.0,83,0.00,,---,0.00,VWS V13.01,2013-05-04 07:00:00,
2013-05-04 03:01:00,49.3,44.7,30.12,ENE,61,0.0,16.0,84,0.00,,---,0.00,VWS V13.01,2013-05-04 07:01:00,
2013-05-04 03:02:00,49.3,44.7,30.12,East,84,0.0,7.0,84,0.00,,---,0.00,VWS V13.01,2013-05-04 07:02:00,
2013-05-04 03:05:00,49.3,44.7,30.12,NE,42,3.0,7.0,84,0.00,,---,0.00,VWS V13.01,2013-05-04 07:05:00,
2013-05-04 03:06:00,49.3,44.7,30.12,ENE,62,8.0,10.0,84,0.00,,---,0.00,VWS V13.01,2013-05-04 07:06:00,
2013-05-04 03:08:00,49.3,44.7,30.12,East,91,1.0,10.0,84,0.00,,---,0.00,VWS V13.01,2013-05-04 07:08:00,
2013-05-04 03:10:00,49.3,44.7,30.12,NE,52,2.0,10.0,84,0.00,,---,0.00,VWS V13.01,2013-05-04 07:10:00,
2013-05-04 03:11:00,49.3,44.7,30.12,ENE,71,5.0,10.0,84,0.00,,---,0.00,VWS V13.01,2013-05-04 07:11:00,
2013-05-04 03:13:00,49.3,44.7,30.12,NE,55,0.0,10.0,84,0.00,,---,0.00,VWS V13.01,2013-05-04 07:13:00,
2013-05-04 03:15:00,49.3,44.7,30.12,ENE,72,0.0,10.0,84,0.00,,---,0.00,VWS V13.01,2013-05-04 07:15:00,
2013-05-04 03:16:00,49.3,44.7,30.12,ENE,72,1.0,10.0,84,0.00,,---,0.00,VWS V13.01,2013-05-04 07:16:00,
2013-05-04 03:17:00,49.3,44.7,30.12,ENE,59,0.0,10.0,84,0.00,,---,0.00,VWS V13.01,2013-05-04 07:17:00,
2013-05-04 03:18:00,49.3,44.7,30.12,ENE,63,0.0,10.0,84,0.00,,---,0.00,VWS V13.01,2013-05-04 07:18:00,
2013-05-04 03:20:00,49.3,44.7,30.12,NE,55,1.0,12.0,84,0.00,,---,0.00,VWS V13.01,2013-05-04 07:20:00,
2013-05-04 03:21:00,49.3,44.7,30.12,ENE,61,2.0,12.0,84,0.00,,---,0.00,VWS V13.01,2013-05-04 07:21:00,
2013-05-04 03:22:00,49.3,44.7,30.13,ESE,105,2.0,12.0,84,0.00,,---,0.00,VWS V13.01,2013-05-04 07:22:00,
2013-05-04 03:23:00,49.3,44.7,30.12,ENE,59,6.0,12.0,84,0.00,,---,0.00,VWS V13.01,2013-05-04 07:23:00,
2013-05-04 03:25:00,49.3,44.7,30.12,NNE,23,1.0,12.0,84,0.00,,---,0.00,VWS V13.01,2013-05-04 07:25:00,
2013-05-04 03:26:00,49.3,44.7,30.12,ENE,64,0.0,12.0,84,0.00,,---,0.00,VWS V13.01,2013-05-04 07:26:00,
2013-05-04 03:27:00,49.3,44.7,30.12,East,91,4.0,12.0,84,0.00,,---,0.00,VWS V13.01,2013-05-04 07:27:00,
2013-05-04 03:28:00,49.3,44.7,30.12,NE,53,2.0,12.0,84,0.00,,---,0.00,VWS V13.01,2013-05-04 07:28:00,
2013-05-04 03:30:00,49.3,44.7,30.12,NNE,21,7.0,12.0,84,0.00,,---,0.00,VWS V13.01,2013-05-04 07:30:00,
2013-05-04 03:31:00,49.3,44.7,30.12,NE,43,2.0,5.0,84,0.00,,---,0.00,VWS V13.01,2013-05-04 07:31:00,
2013-05-04 03:32:00,49.3,44.7,30.12,ENE,69,5.0,5.0,84,0.00,,---,0.00,VWS V13.01,2013-05-04 07:32:00,
2013-05-04 03:33:00,49.2,44.6,30.12,NE,51,9.0,10.0,84,0.00,,---,0.00,VWS V13.01,2013-05-04 07:33:00,
2013-05-04 03:35:00,49.2,44.6,30.12,NE,41,8.0,11.0,84,0.00,,---,0.00,VWS V13.01,2013-05-04 07:35:00,
2013-05-04 03:36:00,49.2,44.6,30.12,East,82,4.0,11.0,84,0.00,,---,0.00,VWS V13.01,2013-05-04 07:36:00,
2013-05-04 03:37:00,49.2,44.9,30.12,NE,48,6.0,14.0,85,0.00,,---,0.00,VWS V13.01,2013-05-04 07:37:00,
2013-05-04 03:38:00,49.2,44.9,30.12,East,86,0.0,14.0,85,0.00,,---,0.00,VWS V13.01,2013-05-04 07:38:00,
2013-05-04 03:40:00,49.2,44.9,30.12,NE,52,4.0,14.0,85,0.00,,---,0.00,VWS V13.01,2013-05-04 07:40:00,
2013-05-04 03:41:00,49.2,44.9,30.12,NE,52,0.0,14.0,85,0.00,,---,0.00,VWS V13.01,2013-05-04 07:41:00,
2013-05-04 03:43:00,49.2,44.9,30.12,East,95,0.0,14.0,85,0.00,,---,0.00,VWS V13.01,2013-05-04 07:43:00,
2013-05-04 03:44:00,49.2,44.9,30.12,East,82,0.0,14.0,85,0.00,,---,0.00,VWS V13.01,2013-05-04 07:44:00,
2013-05-04 03:45:00,49.2,44.9,30.12,East,86,4.0,14.0,85,0.00,,---,0.00,VWS V13.01,2013-05-04 07:45:00,
2013-05-04 03:46:00,49.2,44.9,30.12,NE,39,7.0,14.0,85,0.00,,---,0.00,VWS V13.01,2013-05-04 07:46:00,
2013-05-04 03:48:00,49.2,44.9,30.12,ENE,65,0.0,14.0,85,0.00,,---,0.00,VWS V13.01,2013-05-04 07:48:00,
2013-05-04 03:49:00,49.2,44.9,30.12,ENE,74,0.0,14.0,85,0.00,,---,0.00,VWS V13.01,2013-05-04 07:49:00,
2013-05-04 03:50:00,49.2,44.9,30.12,East,83,3.0,14.0,85,0.00,,---,0.00,VWS V13.01,2013-05-04 07:50:00,
2013-05-04 03:51:00,49.2,44.9,30.12,ESE,105,3.0,14.0,85,0.00,,---,0.00,VWS V13.01,2013-05-04 07:51:00,
2013-05-04 03:52:00,49.2,44.9,30.12,NE,52,1.0,14.0,85,0.00,,---,0.00,VWS V13.01,2013-05-04 07:52:00,
2013-05-04 03:53:00,49.2,44.9,30.12,ENE,57,4.0,14.0,85,0.00,,---,0.00,VWS V13.01,2013-05-04 07:53:00,
2013-05-04 03:54:00,49.2,44.9,30.12,NE,55,3.0,14.0,85,0.00,,---,0.00,VWS V13.01,2013-05-04 07:54:00,
2013-05-04 03:55:00,49.2,44.9,30.12,ESE,114,0.0,14.0,85,0.00,,---,0.00,VWS V13.01,2013-05-04 07:55:00,
2013-05-04 03:56:00,49.2,44.9,30.12,ENE,78,3.0,14.0,85,0.00,,---,0.00,VWS V13.01,2013-05-04 07:56:00,
2013-05-04 03:57:00,49.2,44.9,30.12,NE,50,10.0,14.0,85,0.00,,---,0.00,VWS V13.01,2013-05-04 07:57:00,
2013-05-04 03:58:00,49.2,44.9,30.12,ESE,112,5.0,19.0,85,0.00,,---,0.00,VWS V13.01,2013-05-04 07:58:00,
2013-05-04 03:59:00,49.2,44.9,30.12,ENE,63,2.0,19.0,85,0.00,,---,0.00,VWS V13.01,2013-05-04 07:59:00,
2013-05-04 04:01:00,49.2,44.9,30.12,NE,51,8.0,19.0,85,0.00,,---,0.00,VWS V13.01,2013-05-04 08:01:00,
2013-05-04 04:02:00,49.2,44.9,30.12,NE,55,5.0,8.0,85,0.00,,---,0.00,VWS V13.01,2013-05-04 08:02:00,
2013-05-04 04:03:00,49.2,44.9,30.12,ENE,67,0.0,8.0,85,0.00,,---,0.00,VWS V13.01,2013-05-04 08:03:00,
2013-05-04 04:04:00,49.2,44.9,30.12,NE,49,10.0,10.0,85,0.00,,---,0.00,VWS V13.01,2013-05-04 08:04:00,
2013-05-04 04:06:00,49.2,44.9,30.12,ENE,63,4.0,11.0,85,0.00,,---,0.00,VWS V13.01,2013-05-04 08:06:00,
2013-05-04 04:07:00,49.2,44.9,30.12,NE,50,2.0,11.0,85,0.00,,---,0.00,VWS V13.01,2013-05-04 08:07:00,
2013-05-04 04:08:00,49.2,44.9,30.12,NE,34,3.0,11.0,85,0.00,,---,0.00,VWS V13.01,2013-05-04 08:08:00,
2013-05-04 04:09:00,49.2,45.2,30.12,ENE,68,3.0,11.0,86,0.00,,---,0.00,VWS V13.01,2013-05-04 08:09:00,
2013-05-04 04:11:00,49.2,45.2,30.12,NE,53,0.0,11.0,86,0.00,,---,0.00,VWS V13.01,2013-05-04 08:11:00,
2013-05-04 04:12:00,49.2,45.2,30.12,ENE,61,3.0,11.0,86,0.00,,---,0.00,VWS V13.01,2013-05-04 08:12:00,
2013-05-04 04:13:00,49.2,45.2,30.12,ENE,61,2.0,11.0,86,0.00,,---,0.00,VWS V13.01,2013-05-04 08:13:00,
2013-05-04 04:14:00,49.2,45.2,30.12,NE,48,4.0,11.0,86,0.00,,---,0.00,VWS V13.01,2013-05-04 08:14:00,
2013-05-04 04:16:00,49.2,45.2,30.12,NE,56,0.0,11.0,86,0.00,,---,0.00,VWS V13.01,2013-05-04 08:16:00,
2013-05-04 04:18:00,49.2,45.2,30.12,NE,53,1.0,11.0,86,0.00,,---,0.00,VWS V13.01,2013-05-04 08:18:00,
2013-05-04 04:19:00,49.2,45.2,30.12,ENE,70,5.0,12.0,86,0.00,,---,0.00,VWS V13.01,2013-05-04 08:19:00,
2013-05-04 04:22:00,49.2,45.2,30.12,NE,44,5.0,12.0,86,0.00,,---,0.00,VWS V13.01,2013-05-04 08:22:00,
2013-05-04 04:23:00,49.2,45.2,30.12,ENE,65,9.0,13.0,86,0.00,,---,0.00,VWS V13.01,2013-05-04 08:23:00,
2013-05-04 04:25:00,49.2,45.2,30.12,NE,49,9.0,13.0,86,0.00,,---,0.00,VWS V13.01,2013-05-04 08:25:00,
2013-05-04 04:27:00,49.2,45.2,30.12,ENE,69,6.0,13.0,86,0.00,,---,0.00,VWS V13.01,2013-05-04 08:27:00,
2013-05-04 04:28:00,49.2,45.2,30.12,ENE,61,3.0,13.0,86,0.00,,---,0.00,VWS V13.01,2013-05-04 08:28:00,
2013-05-04 04:29:00,49.2,45.2,30.12,ESE,104,0.0,13.0,86,0.00,,---,0.00,VWS V13.01,2013-05-04 08:29:00,
2013-05-04 04:30:00,49.2,45.2,30.12,ENE,78,4.0,13.0,86,0.00,,---,0.00,VWS V13.01,2013-05-04 08:30:00,
2013-05-04 04:32:00,49.2,45.2,30.12,ENE,70,0.0,0.0,86,0.00,,---,0.00,VWS V13.01,2013-05-04 08:32:00,
2013-05-04 04:33:00,49.2,45.2,30.13,ENE,72,0.0,3.0,86,0.00,,---,0.00,VWS V13.01,2013-05-04 08:33:00,
2013-05-04 04:34:00,49.2,45.2,30.12,SSE,155,0.0,7.0,86,0.00,,---,0.00,VWS V13.01,2013-05-04 08:34:00,
2013-05-04 04:35:00,49.2,45.2,30.13,East,98,0.0,10.0,86,0.00,,---,0.00,VWS V13.01,2013-05-04 08:35:00,
2013-05-04 04:37:00,49.2,45.2,30.12,ENE,59,4.0,10.0,86,0.00,,---,0.00,VWS V13.01,2013-05-04 08:37:00,
2013-05-04 04:38:00,49.2,45.2,30.12,ESE,107,5.0,16.0,86,0.00,,---,0.00,VWS V13.01,2013-05-04 08:38:00,
2013-05-04 04:39:00,49.2,45.2,30.12,NE,36,0.0,16.0,86,0.00,,---,0.00,VWS V13.01,2013-05-04 08:39:00,
2013-05-04 04:40:00,49.2,45.2,30.12,ENE,78,9.0,16.0,86,0.00,,---,0.00,VWS V13.01,2013-05-04 08:40:00,
2013-05-04 04:42:00,49.2,45.2,30.12,ENE,69,10.0,16.0,86,0.00,,---,0.00,VWS V13.01,2013-05-04 08:42:00,
2013-05-04 04:44:00,49.1,45.1,30.12,NE,46,10.0,16.0,86,0.00,,---,0.00,VWS V13.01,2013-05-04 08:44:00,
2013-05-04 04:45:00,49.1,45.1,30.12,ENE,74,10.0,16.0,86,0.00,,---,0.00,VWS V13.01,2013-05-04 08:45:00,
2013-05-04 04:47:00,49.1,45.1,30.12,NNE,32,3.0,16.0,86,0.00,,---,0.00,VWS V13.01,2013-05-04 08:47:00,
2013-05-04 04:49:00,49.1,45.1,30.12,ENE,59,1.0,16.0,86,0.00,,---,0.00,VWS V13.01,2013-05-04 08:49:00,
2013-05-04 04:50:00,49.1,45.1,30.12,NE,56,4.0,16.0,86,0.00,,---,0.00,VWS V13.01,2013-05-04 08:50:00,
2013-05-04 04:53:00,49.1,45.1,30.12,NNE,22,3.0,16.0,86,0.00,,---,0.00,VWS V13.01,2013-05-04 08:53:00,
2013-05-04 04:54:00,49.1,45.1,30.12,East,91,2.0,16.0,86,0.00,,---,0.00,VWS V13.01,2013-05-04 08:54:00,
2013-05-04 04:55:00,49.1,45.1,30.12,ENE,59,4.0,16.0,86,0.00,,---,0.00,VWS V13.01,2013-05-04 08:55:00,
2013-05-04 04:56:00,49.1,45.1,30.12,ENE,65,0.0,16.0,86,0.00,,---,0.00,VWS V13.01,2013-05-04 08:56:00,
2013-05-04 04:58:00,49.1,45.1,30.12,ENE,69,0.0,16.0,86,0.00,,---,0.00,VWS V13.01,2013-05-04 08:58:00,
2013-05-04 04:59:00,49.1,45.1,30.12,East,86,3.0,16.0,86,0.00,,---,0.00,VWS V13.01,2013-05-04 08:59:00,
2013-05-04 05:00:00,49.1,45.1,30.12,NE,48,5.0,16.0,86,0.00,,---,0.00,VWS V13.01,2013-05-04 09:00:00,
2013-05-04 05:01:00,49.1,45.1,30.12,ENE,78,4.0,16.0,86,0.00,,---,0.00,VWS V13.01,2013-05-04 09:01:00,
2013-05-04 05:03:00,49.0,45.0,30.12,ENE,76,5.0,10.0,86,0.00,,---,0.00,VWS V13.01,2013-05-04 09:03:00,
2013-05-04 05:04:00,49.0,45.0,30.12,ENE,74,0.0,11.0,86,0.00,,---,0.00,VWS V13.01,2013-05-04 09:04:00,
2013-05-04 05:05:00,49.0,45.0,30.12,NE,51,15.0,15.0,86,0.00,,---,0.00,VWS V13.01,2013-05-04 09:05:00,
2013-05-04 05:06:00,49.0,45.0,30.12,ENE,72,3.0,17.0,86,0.00,,---,0.00,VWS V13.01,2013-05-04 09:06:00,
2013-05-04 05:08:00,49.0,45.0,30.12,NE,54,4.0,17.0,86,0.00,,---,0.00,VWS V13.01,2013-05-04 09:08:00,
2013-05-04 05:09:00,49.0,45.0,30.12,NE,51,11.0,17.0,86,0.00,,---,0.00,VWS V13.01,2013-05-04 09:09:00,
2013-05-04 05:10:00,49.0,45.0,30.12,NE,41,6.0,17.0,86,0.00,,---,0.00,VWS V13.01,2013-05-04 09:10:00,
2013-05-04 05:11:00,49.0,45.0,30.12,ENE,73,2.0,17.0,86,0.00,,---,0.00,VWS V13.01,2013-05-04 09:11:00,
2013-05-04 05:12:00,49.0,45.0,30.13,East,99,5.0,17.0,86,0.00,,---,0.00,VWS V13.01,2013-05-04 09:12:00,
2013-05-04 05:13:00,49.0,45.0,30.12,ENE,72,4.0,17.0,86,0.00,,---,0.00,VWS V13.01,2013-05-04 09:13:00,
2013-05-04 05:14:00,48.9,44.9,30.12,NE,44,10.0,17.0,86,0.00,,---,0.00,VWS V13.01,2013-05-04 09:14:00,
2013-05-04 05:15:00,48.9,44.9,30.12,East,82,0.0,17.0,86,0.00,,---,0.00,VWS V13.01,2013-05-04 09:15:00,
2013-05-04 05:16:00,48.9,44.9,30.12,ENE,67,1.0,17.0,86,0.00,,---,0.00,VWS V13.01,2013-05-04 09:16:00,
2013-05-04 05:18:00,48.9,44.9,30.12,East,82,5.0,17.0,86,0.00,,---,0.00,VWS V13.01,2013-05-04 09:18:00,
2013-05-04 05:20:00,48.9,44.9,30.13,NE,45,1.0,17.0,86,0.00,,---,0.00,VWS V13.01,2013-05-04 09:20:00,
2013-05-04 05:21:00,48.9,44.9,30.13,NE,42,0.0,17.0,86,0.00,,---,0.00,VWS V13.01,2013-05-04 09:21:00,
2013-05-04 05:23:00,48.9,44.9,30.13,East,80,4.0,17.0,86,0.00,,---,0.00,VWS V13.01,2013-05-04 09:23:00,
2013-05-04 05:25:00,48.9,45.2,30.13,NE,52,2.0,17.0,87,0.00,,---,0.00,VWS V13.01,2013-05-04 09:25:00,
2013-05-04 05:26:00,48.9,45.2,30.12,NE,55,0.0,17.0,87,0.00,,---,0.00,VWS V13.01,2013-05-04 09:26:00,
2013-05-04 05:28:00,48.9,45.2,30.12,ENE,60,0.0,17.0,87,0.00,,---,0.00,VWS V13.01,2013-05-04 09:28:00,
2013-05-04 05:30:00,48.9,45.2,30.12,East,79,2.0,17.0,87,0.00,,---,0.00,VWS V13.01,2013-05-04 09:30:00,
2013-05-04 05:31:00,48.8,45.1,30.12,ENE,67,3.0,17.0,87,0.00,,---,0.00,VWS V13.01,2013-05-04 09:31:00,
2013-05-04 05:33:00,48.8,45.1,30.12,ENE,63,3.0,5.0,87,0.00,,---,0.00,VWS V13.01,2013-05-04 09:33:00,
2013-05-04 05:35:00,48.8,45.1,30.12,ENE,65,4.0,10.0,87,0.00,,---,0.00,VWS V13.01,2013-05-04 09:35:00,
2013-05-04 05:36:00,48.8,45.1,30.12,NNE,30,0.0,11.0,87,0.00,,---,0.00,VWS V13.01,2013-05-04 09:36:00,
2013-05-04 05:38:00,48.8,45.1,30.12,NNE,22,0.0,11.0,87,0.00,,---,0.00,VWS V13.01,2013-05-04 09:38:00,
2013-05-04 05:39:00,48.8,45.1,30.12,ENE,71,3.0,11.0,87,0.00,,---,0.00,VWS V13.01,2013-05-04 09:39:00,
2013-05-04 05:40:00,48.8,45.1,30.12,NNE,26,0.0,11.0,87,0.00,,---,0.00,VWS V13.01,2013-05-04 09:40:00,
2013-05-04 05:41:00,48.8,45.1,30.12,NE,46,1.0,11.0,87,0.00,,---,0.00,VWS V13.01,2013-05-04 09:41:00,
2013-05-04 05:44:00,48.8,45.1,30.12,NNE,17,4.0,13.0,87,0.00,,---,0.00,VWS V13.01,2013-05-04 09:44:00,
2013-05-04 05:45:00,48.7,45.0,30.11,North,355,0.0,13.0,87,0.00,,---,0.00,VWS V13.01,2013-05-04 09:45:00,
2013-05-04 05:46:00,48.7,45.0,30.11,ESE,109,4.0,13.0,87,0.00,,---,0.00,VWS V13.01,2013-05-04 09:46:00,
2013-05-04 05:49:00,48.7,45.0,30.12,North,349,3.0,13.0,87,0.00,,---,0.00,VWS V13.01,2013-05-04 09:49:00,
2013-05-04 05:50:00,48.7,45.0,30.12,West,270,4.0,13.0,87,0.00,,---,0.00,VWS V13.01,2013-05-04 09:50:00,
2013-05-04 05:51:00,48.7,45.0,30.12,NE,50,3.0,13.0,87,0.00,,---,0.00,VWS V13.01,2013-05-04 09:51:00,
2013-05-04 05:54:00,48.7,45.0,30.12,NE,44,0.0,13.0,87,0.00,,---,0.00,VWS V13.01,2013-05-04 09:54:00,
2013-05-04 05:55:00,48.7,45.0,30.12,NE,44,0.0,13.0,87,0.00,,---,0.00,VWS V13.01,2013-05-04 09:55:00,
2013-05-04 05:56:00,48.6,44.9,30.12,North,9,7.0,14.0,87,0.00,,---,0.00,VWS V13.01,2013-05-04 09:56:00,
2013-05-04 05:57:00,48.6,44.9,30.12,North,5,0.0,14.0,87,0.00,,---,0.00,VWS V13.01,2013-05-04 09:57:00,
2013-05-04 05:59:00,48.6,44.9,30.12,ENE,72,2.0,14.0,87,0.00,,---,0.00,VWS V13.01,2013-05-04 09:59:00,
2013-05-04 06:00:00,48.6,44.9,30.12,NNE,17,0.0,14.0,87,0.00,,---,0.00,VWS V13.01,2013-05-04 10:00:00,
2013-05-04 06:01:00,48.6,44.9,30.12,NNE,17,0.0,14.0,87,0.00,,---,0.00,VWS V13.01,2013-05-04 10:01:00,
2013-05-04 06:02:00,48.5,44.8,30.12,NNE,19,3.0,3.0,87,0.00,,---,0.00,VWS V13.01,2013-05-04 10:02:00,
2013-05-04 06:04:00,48.5,44.8,30.12,NNE,17,6.0,11.0,87,0.00,,---,0.00,VWS V13.01,2013-05-04 10:04:00,
2013-05-04 06:06:00,48.5,44.8,30.12,NE,51,3.0,11.0,87,0.00,,---,0.00,VWS V13.01,2013-05-04 10:06:00,
2013-05-04 06:07:00,48.5,44.8,30.12,NE,51,4.0,11.0,87,0.00,,---,0.00,VWS V13.01,2013-05-04 10:07:00,
2013-05-04 06:09:00,48.5,44.8,30.12,NE,55,9.0,14.0,87,0.00,,---,0.00,VWS V13.01,2013-05-04 10:09:00,
2013-05-04 06:11:00,48.5,44.8,30.13,ESE,122,4.0,14.0,87,0.00,,---,0.00,VWS V13.01,2013-05-04 10:11:00,
2013-05-04 06:12:00,48.4,44.7,30.12,NE,41,2.0,14.0,87,0.00,,---,0.00,VWS V13.01,2013-05-04 10:12:00,
2013-05-04 06:14:00,48.4,44.7,30.12,NE,36,3.0,17.0,87,0.00,,---,0.00,VWS V13.01,2013-05-04 10:14:00,
2013-05-04 06:16:00,48.4,44.7,30.12,NE,51,2.0,17.0,87,0.00,,---,0.00,VWS V13.01,2013-05-04 10:16:00,
2013-05-04 06:17:00,48.3,44.6,30.12,NE,53,0.0,17.0,87,0.00,,---,0.00,VWS V13.01,2013-05-04 10:17:00,
2013-05-04 06:19:00,48.3,44.6,30.12,ENE,71,3.0,17.0,87,0.00,,---,0.00,VWS V13.01,2013-05-04 10:19:00,
2013-05-04 06:21:00,48.3,44.6,30.12,NNW,348,9.0,17.0,87,0.00,,---,0.00,VWS V13.01,2013-05-04 10:21:00,
2013-05-04 06:22:00,48.3,44.6,30.12,NNE,24,10.0,17.0,87,0.00,,---,0.00,VWS V13.01,2013-05-04 10:22:00,
2013-05-04 06:24:00,48.3,44.6,30.12,NE,51,2.0,17.0,87,0.00,,---,0.00,VWS V13.01,2013-05-04 10:24:00,
2013-05-04 06:26:00,48.3,44.6,30.12,NE,47,4.0,17.0,87,0.00,,---,0.00,VWS V13.01,2013-05-04 10:26:00,
2013-05-04 06:27:00,48.3,44.6,30.12,NE,53,5.0,17.0,87,0.00,,---,0.00,VWS V13.01,2013-05-04 10:27:00,
2013-05-04 06:29:00,48.3,44.6,30.13,NE,52,5.0,17.0,87,0.00,,---,0.00,VWS V13.01,2013-05-04 10:29:00,
2013-05-04 06:31:00,48.2,44.5,30.13,North,360,4.0,7.0,87,0.00,,---,0.00,VWS V13.01,2013-05-04 10:31:00,
2013-05-04 06:32:00,48.2,44.5,30.13,ENE,71,2.0,7.0,87,0.00,,---,0.00,VWS V13.01,2013-05-04 10:32:00,
2013-05-04 06:34:00,48.2,44.5,30.13,East,81,5.0,11.0,87,0.00,,---,0.00,VWS V13.01,2013-05-04 10:34:00,
2013-05-04 06:36:00,48.2,44.5,30.13,East,83,1.0,11.0,87,0.00,,---,0.00,VWS V13.01,2013-05-04 10:36:00,
2013-05-04 06:37:00,48.2,44.8,30.13,ESE,108,1.0,16.0,88,0.00,,---,0.00,VWS V13.01,2013-05-04 10:37:00,
2013-05-04 06:40:00,48.1,44.7,30.13,NE,46,6.0,16.0,88,0.00,,---,0.00,VWS V13.01,2013-05-04 10:40:00,
2013-05-04 06:41:00,48.1,44.7,30.13,ESE,102,1.0,16.0,88,0.00,,---,0.00,VWS V13.01,2013-05-04 10:41:00,
2013-05-04 06:42:00,48.1,44.7,30.13,East,93,0.0,16.0,88,0.00,,---,0.00,VWS V13.01,2013-05-04 10:42:00,
2013-05-04 06:43:00,48.1,44.7,30.13,East,84,0.0,16.0,88,0.00,,---,0.00,VWS V13.01,2013-05-04 10:43:00,
2013-05-04 06:45:00,48.1,44.7,30.13,ENE,78,5.0,16.0,88,0.00,,---,0.00,VWS V13.01,2013-05-04 10:45:00,
2013-05-04 06:46:00,48.1,44.7,30.13,NE,45,3.0,16.0,88,0.00,,---,0.00,VWS V13.01,2013-05-04 10:46:00,
2013-05-04 06:47:00,48.1,44.7,30.13,ENE,66,4.0,16.0,88,0.00,,---,0.00,VWS V13.01,2013-05-04 10:47:00,
2013-05-04 06:48:00,48.1,44.7,30.13,NE,55,0.0,16.0,88,0.00,,---,0.00,VWS V13.01,2013-05-04 10:48:00,
2013-05-04 06:50:00,48.1,44.7,30.14,NE,53,0.0,16.0,88,0.00,,---,0.00,VWS V13.01,2013-05-04 10:50:00,
2013-05-04 06:52:00,48.1,44.7,30.14,NE,47,0.0,16.0,88,0.00,,---,0.00,VWS V13.01,2013-05-04 10:52:00,
2013-05-04 06:53:00,48.1,44.7,30.14,ENE,60,3.0,16.0,88,0.00,,---,0.00,VWS V13.01,2013-05-04 10:53:00,
2013-05-04 06:55:00,48.1,44.7,30.14,NE,44,5.0,16.0,88,0.00,,---,0.00,VWS V13.01,2013-05-04 10:55:00,
2013-05-04 06:57:00,48.0,44.6,30.14,NE,53,0.0,16.0,88,0.00,,---,0.00,VWS V13.01,2013-05-04 10:57:00,
2013-05-04 06:58:00,48.0,44.6,30.14,NNW,343,5.0,16.0,88,0.00,,---,0.00,VWS V13.01,2013-05-04 10:58:00,
2013-05-04 07:00:00,48.0,44.6,30.14,North,10,1.0,16.0,88,0.00,,---,0.00,VWS V13.01,2013-05-04 11:00:00,
2013-05-04 07:02:00,48.0,44.6,30.14,East,84,3.0,11.0,88,0.00,,---,0.00,VWS V13.01,2013-05-04 11:02:00,
2013-05-04 07:03:00,48.0,44.6,30.14,ENE,74,11.0,11.0,88,0.00,,---,0.00,VWS V13.01,2013-05-04 11:03:00,
2013-05-04 07:05:00,48.0,44.6,30.14,ENE,67,2.0,11.0,88,0.00,,---,0.00,VWS V13.01,2013-05-04 11:05:00,
2013-05-04 07:07:00,47.9,44.5,30.14,ENE,66,0.0,11.0,88,0.00,,---,0.00,VWS V13.01,2013-05-04 11:07:00,
2013-05-04 07:08:00,47.9,44.5,30.14,NNE,24,0.0,11.0,88,0.00,,---,0.00,VWS V13.01,2013-05-04 11:08:00,
2013-05-04 07:10:00,48.0,44.6,30.14,NE,48,1.0,11.0,88,0.00,,---,0.00,VWS V13.01,2013-05-04 11:10:00,
2013-05-04 07:12:00,47.9,44.5,30.14,ENE,64,1.0,11.0,88,0.00,,---,0.00,VWS V13.01,2013-05-04 11:12:00,
2013-05-04 07:13:00,48.0,44.6,30.14,NE,49,0.0,11.0,88,0.00,,---,0.00,VWS V13.01,2013-05-04 11:13:00,
2013-05-04 07:14:00,48.0,44.6,30.14,East,83,3.0,11.0,88,0.00,,---,0.00,VWS V13.01,2013-05-04 11:14:00,
2013-05-04 07:15:00,48.0,44.6,30.14,ENE,64,4.0,11.0,88,0.00,,---,0.00,VWS V13.01,2013-05-04 11:15:00,
2013-05-04 07:17:00,48.0,44.6,30.14,NE,41,4.0,11.0,88,0.00,,---,0.00,VWS V13.01,2013-05-04 11:17:00,
2013-05-04 07:19:00,48.0,44.6,30.14,NE,53,12.0,15.0,88,0.00,,---,0.00,VWS V13.01,2013-05-04 11:19:00,
2013-05-04 07:20:00,47.9,44.5,30.14,NE,54,2.0,15.0,88,0.00,,---,0.00,VWS V13.01,2013-05-04 11:20:00,
2013-05-04 07:23:00,47.9,44.5,30.14,ENE,63,5.0,15.0,88,0.00,,---,0.00,VWS V13.01,2013-05-04 11:23:00,
2013-05-04 07:24:00,47.9,44.5,30.14,East,96,6.0,15.0,88,0.00,,---,0.00,VWS V13.01,2013-05-04 11:24:00,
2013-05-04 07:25:00,47.9,44.5,30.14,NNE,20,9.0,15.0,88,0.00,,---,0.00,VWS V13.01,2013-05-04 11:25:00,
2013-05-04 07:28:00,47.9,44.5,30.14,ENE,65,6.0,15.0,88,0.00,,---,0.00,VWS V13.01,2013-05-04 11:28:00,
2013-05-04 07:29:00,47.9,44.5,30.14,East,87,3.0,15.0,88,0.00,,---,0.00,VWS V13.01,2013-05-04 11:29:00,
2013-05-04 07:31:00,47.9,44.5,30.14,ENE,74,0.0,15.0,88,0.00,,---,0.00,VWS V13.01,2013-05-04 11:31:00,
2013-05-04 07:33:00,47.9,44.5,30.14,NE,39,3.0,9.0,88,0.00,,---,0.00,VWS V13.01,2013-05-04 11:33:00,
2013-05-04 07:34:00,47.9,44.5,30.14,ENE,65,0.0,16.0,88,0.00,,---,0.00,VWS V13.01,2013-05-04 11:34:00,
2013-05-04 07:36:00,47.9,44.5,30.15,NE,39,4.0,16.0,88,0.00,,---,0.00,VWS V13.01,2013-05-04 11:36:00,
2013-05-04 07:38:00,47.9,44.5,30.14,NE,36,0.0,16.0,88,0.00,,---,0.00,VWS V13.01,2013-05-04 11:38:00,
2013-05-04 07:39:00,47.9,44.5,30.15,NE,36,0.0,16.0,88,0.00,,---,0.00,VWS V13.01,2013-05-04 11:39:00,
2013-05-04 07:40:00,47.9,44.5,30.15,NE,36,0.0,16.0,88,0.00,,---,0.00,VWS V13.01,2013-05-04 11:40:00,
2013-05-04 07:41:00,47.9,44.5,30.15,ESE,123,4.0,16.0,88,0.00,,---,0.00,VWS V13.01,2013-05-04 11:41:00,
2013-05-04 07:43:00,47.9,44.5,30.15,NE,34,1.0,16.0,88,0.00,,---,0.00,VWS V13.01,2013-05-04 11:43:00,
2013-05-04 07:44:00,47.9,44.5,30.14,NE,45,6.0,16.0,88,0.00,,---,0.00,VWS V13.01,2013-05-04 11:44:00,
2013-05-04 07:46:00,47.9,44.5,30.14,ENE,60,5.0,16.0,88,0.00,,---,0.00,VWS V13.01,2013-05-04 11:46:00,
2013-05-04 07:47:00,47.9,44.5,30.14,NE,45,6.0,16.0,88,0.00,,---,0.00,VWS V13.01,2013-05-04 11:47:00,
2013-05-04 07:49:00,47.9,44.5,30.14,NE,34,1.0,16.0,88,0.00,,---,0.00,VWS V13.01,2013-05-04 11:49:00,
2013-05-04 07:51:00,48.0,44.6,30.14,East,97,5.0,16.0,88,0.00,,---,0.00,VWS V13.01,2013-05-04 11:51:00,
2013-05-04 07:52:00,48.0,44.6,30.14,ENE,65,5.0,16.0,88,0.00,,---,0.00,VWS V13.01,2013-05-04 11:52:00,
2013-05-04 07:54:00,48.0,44.6,30.14,ENE,72,0.0,16.0,88,0.00,,---,0.00,VWS V13.01,2013-05-04 11:54:00,
2013-05-04 07:56:00,48.0,44.6,30.14,NNE,26,2.0,16.0,88,0.00,,---,0.00,VWS V13.01,2013-05-04 11:56:00,
2013-05-04 07:58:00,48.0,44.6,30.14,NE,49,0.0,16.0,88,0.00,,---,0.00,VWS V13.01,2013-05-04 11:58:00,
2013-05-04 08:01:00,48.0,44.6,30.14,ENE,78,5.0,16.0,88,0.00,,---,0.00,VWS V13.01,2013-05-04 12:01:00,
2013-05-04 08:03:00,48.0,44.6,30.15,North,355,8.0,13.0,88,0.00,,---,0.00,VWS V13.01,2013-05-04 12:03:00,
2013-05-04 08:06:00,48.0,44.6,30.15,NNE,18,0.0,13.0,88,0.00,,---,0.00,VWS V13.01,2013-05-04 12:06:00,
2013-05-04 08:08:00,48.0,44.6,30.15,NE,36,5.0,13.0,88,0.00,,---,0.00,VWS V13.01,2013-05-04 12:08:00,
2013-05-04 08:11:00,48.0,44.6,30.15,North,360,1.0,13.0,88,0.00,,---,0.00,VWS V13.01,2013-05-04 12:11:00,
2013-05-04 08:13:00,48.0,44.9,30.15,NE,51,4.0,13.0,89,0.00,,---,0.00,VWS V13.01,2013-05-04 12:13:00,
2013-05-04 08:18:00,48.1,45.0,30.15,ENE,61,5.0,13.0,89,0.00,,---,0.00,VWS V13.01,2013-05-04 12:18:00,
2013-05-04 08:23:00,48.1,45.0,30.15,NE,37,0.0,14.0,89,0.00,,---,0.00,VWS V13.01,2013-05-04 12:23:00,
2013-05-04 08:24:00,48.1,45.0,30.15,East,86,4.0,14.0,89,0.00,,---,0.00,VWS V13.01,2013-05-04 12:24:00,
2013-05-04 08:26:00,48.1,45.0,30.15,ENE,70,3.0,14.0,89,0.00,,---,0.00,VWS V13.01,2013-05-04 12:26:00,
2013-05-04 08:29:00,48.1,45.0,30.15,ENE,76,5.0,14.0,89,0.00,,---,0.00,VWS V13.01,2013-05-04 12:29:00,
2013-05-04 08:32:00,48.2,45.1,30.15,NNE,19,6.0,10.0,89,0.00,,---,0.00,VWS V13.01,2013-05-04 12:32:00,
2013-05-04 08:34:00,48.1,45.0,30.15,NE,36,12.0,13.0,89,0.00,,---,0.00,VWS V13.01,2013-05-04 12:34:00,
2013-05-04 08:38:00,48.2,45.1,30.15,NE,52,0.0,13.0,89,0.00,,---,0.00,VWS V13.01,2013-05-04 12:38:00,
2013-05-04 08:39:00,48.2,45.1,30.15,NE,51,0.0,13.0,89,0.00,,---,0.00,VWS V13.01,2013-05-04 12:39:00,
2013-05-04 08:40:00,48.2,45.1,30.15,NE,55,4.0,13.0,89,0.00,,---,0.00,VWS V13.01,2013-05-04 12:40:00,
2013-05-04 08:43:00,48.2,45.1,30.16,ENE,61,4.0,13.0,89,0.00,,---,0.00,VWS V13.01,2013-05-04 12:43:00,
2013-05-04 08:44:00,48.2,45.1,30.16,ENE,69,0.0,13.0,89,0.00,,---,0.00,VWS V13.01,2013-05-04 12:44:00,
2013-05-04 08:45:00,48.2,45.1,30.16,NNW,335,0.0,13.0,89,0.00,,---,0.00,VWS V13.01,2013-05-04 12:45:00,
2013-05-04 08:48:00,48.3,45.2,30.15,ENE,57,6.0,13.0,89,0.00,,---,0.00,VWS V13.01,2013-05-04 12:48:00,
2013-05-04 08:49:00,48.3,45.2,30.15,North,360,6.0,13.0,89,0.00,,---,0.00,VWS V13.01,2013-05-04 12:49:00,
2013-05-04 08:50:00,48.3,45.2,30.15,East,84,0.0,13.0,89,0.00,,---,0.00,VWS V13.01,2013-05-04 12:50:00,
2013-05-04 08:53:00,48.3,45.2,30.15,East,90,10.0,13.0,89,0.00,,---,0.00,VWS V13.01,2013-05-04 12:53:00,
2013-05-04 08:54:00,48.4,45.3,30.15,East,92,3.0,13.0,89,0.00,,---,0.00,VWS V13.01,2013-05-04 12:54:00,
2013-05-04 08:55:00,48.4,45.3,30.15,NE,37,6.0,13.0,89,0.00,,---,0.00,VWS V13.01,2013-05-04 12:55:00,
2013-05-04 08:58:00,48.5,45.4,30.15,NE,53,7.0,13.0,89,0.00,,---,0.00,VWS V13.01,2013-05-04 12:58:00,
2013-05-04 08:59:00,48.5,45.4,30.15,East,80,0.0,13.0,89,0.00,,---,0.00,VWS V13.01,2013-05-04 12:59:00,
2013-05-04 09:00:00,48.5,45.4,30.15,ENE,63,0.0,13.0,89,0.00,,---,0.00,VWS V13.01,2013-05-04 13:00:00,
2013-05-04 09:01:00,48.5,45.4,30.15,ENE,63,0.0,13.0,89,0.00,,---,0.00,VWS V13.01,2013-05-04 13:01:00,
2013-05-04 09:03:00,48.6,45.5,30.15,ENE,69,7.0,8.0,89,0.00,,---,0.00,VWS V13.01,2013-05-04 13:03:00,
2013-05-04 09:04:00,48.6,45.5,30.15,East,83,0.0,8.0,89,0.00,,---,0.00,VWS V13.01,2013-05-04 13:04:00,
2013-05-04 09:05:00,48.6,45.5,30.15,NE,46,2.0,8.0,89,0.00,,---,0.00,VWS V13.01,2013-05-04 13:05:00,
2013-05-04 09:06:00,48.6,45.5,30.15,NE,43,0.0,8.0,89,0.00,,---,0.00,VWS V13.01,2013-05-04 13:06:00,
2013-05-04 09:08:00,48.7,45.6,30.15,NNW,336,4.0,8.0,89,0.00,,---,0.00,VWS V13.01,2013-05-04 13:08:00,
2013-05-04 09:09:00,48.7,45.6,30.15,ENE,63,0.0,8.0,89,0.00,,---,0.00,VWS V13.01,2013-05-04 13:09:00,
2013-05-04 09:11:00,48.7,45.6,30.15,NE,48,2.0,8.0,89,0.00,,---,0.00,VWS V13.01,2013-05-04 13:11:00,
2013-05-04 09:13:00,48.8,45.7,30.15,ENE,73,11.0,15.0,89,0.00,,---,0.00,VWS V13.01,2013-05-04 13:13:00,
2013-05-04 09:14:00,48.8,45.7,30.15,NE,34,10.0,15.0,89,0.00,,---,0.00,VWS V13.01,2013-05-04 13:14:00,
2013-05-04 09:15:00,48.8,45.7,30.15,NE,46,6.0,15.0,89,0.00,,---,0.00,VWS V13.01,2013-05-04 13:15:00,
2013-05-04 09:16:00,48.8,45.7,30.15,NE,45,4.0,15.0,89,0.00,,---,0.00,VWS V13.01,2013-05-04 13:16:00,
2013-05-04 09:18:00,48.9,45.8,30.15,NE,53,11.0,15.0,89,0.00,,---,0.00,VWS V13.01,2013-05-04 13:18:00,
2013-05-04 09:19:00,49.0,45.9,30.15,ENE,75,1.0,15.0,89,0.00,,---,0.00,VWS V13.01,2013-05-04 13:19:00,
2013-05-04 09:20:00,49.0,45.9,30.15,ENE,59,6.0,15.0,89,0.00,,---,0.00,VWS V13.01,2013-05-04 13:20:00,
2013-05-04 09:21:00,49.0,45.9,30.15,SE,137,1.0,15.0,89,0.00,,---,0.00,VWS V13.01,2013-05-04 13:21:00,
2013-05-04 09:23:00,49.1,46.0,30.15,ENE,71,5.0,15.0,89,0.00,,---,0.00,VWS V13.01,2013-05-04 13:23:00,
2013-05-04 09:24:00,49.1,46.0,30.15,NE,52,6.0,15.0,89,0.00,,---,0.00,VWS V13.01,2013-05-04 13:24:00,
2013-05-04 09:25:00,49.1,46.0,30.15,NE,49,0.0,15.0,89,0.00,,---,0.00,VWS V13.01,2013-05-04 13:25:00,
2013-05-04 09:26:00,49.2,46.1,30.15,ENE,76,4.0,15.0,89,0.00,,---,0.00,VWS V13.01,2013-05-04 13:26:00,
2013-05-04 09:28:00,49.2,46.1,30.15,East,79,4.0,15.0,89,0.00,,---,0.00,VWS V13.01,2013-05-04 13:28:00,
2013-05-04 09:29:00,49.2,46.1,30.14,ENE,65,0.0,15.0,89,0.00,,---,0.00,VWS V13.01,2013-05-04 13:29:00,
2013-05-04 09:30:00,49.2,45.8,30.14,ENE,62,0.0,15.0,88,0.00,,---,0.00,VWS V13.01,2013-05-04 13:30:00,
2013-05-04 09:31:00,49.2,45.8,30.14,ENE,74,0.0,3.0,88,0.00,,---,0.00,VWS V13.01,2013-05-04 13:31:00,
2013-05-04 09:32:00,49.2,45.8,30.14,ENE,74,0.0,3.0,88,0.00,,---,0.00,VWS V13.01,2013-05-04 13:32:00,
2013-05-04 09:34:00,49.3,45.9,30.14,NE,56,5.0,11.0,88,0.00,,---,0.00,VWS V13.01,2013-05-04 13:34:00,
2013-05-04 09:35:00,49.3,45.9,30.14,NW,317,0.0,11.0,88,0.00,,---,0.00,VWS V13.01,2013-05-04 13:35:00,
2013-05-04 09:36:00,49.4,46.0,30.14,NE,52,7.0,11.0,88,0.00,,---,0.00,VWS V13.01,2013-05-04 13:36:00,
2013-05-04 09:37:00,49.4,46.0,30.14,NE,43,2.0,11.0,88,0.00,,---,0.00,VWS V13.01,2013-05-04 13:37:00,
2013-05-04 09:39:00,49.5,46.1,30.14,ESE,121,0.0,11.0,88,0.00,,---,0.00,VWS V13.01,2013-05-04 13:39:00,
2013-05-04 09:40:00,49.5,46.1,30.14,ESE,121,0.0,11.0,88,0.00,,---,0.00,VWS V13.01,2013-05-04 13:40:00,
2013-05-04 09:41:00,49.6,46.2,30.14,NE,49,11.0,16.0,88,0.00,,---,0.00,VWS V13.01,2013-05-04 13:41:00,
2013-05-04 09:42:00,49.6,46.2,30.14,NNE,31,5.0,16.0,88,0.00,,---,0.00,VWS V13.01,2013-05-04 13:42:00,
2013-05-04 09:44:00,49.7,46.3,30.14,NE,53,6.0,16.0,88,0.00,,---,0.00,VWS V13.01,2013-05-04 13:44:00,
2013-05-04 09:45:00,49.7,46.0,30.14,ESE,115,6.0,16.0,87,0.00,,---,0.00,VWS V13.01,2013-05-04 13:45:00,
2013-05-04 09:46:00,49.7,46.0,30.14,NE,51,11.0,16.0,87,0.00,,---,0.00,VWS V13.01,2013-05-04 13:46:00,
2013-05-04 09:47:00,49.7,46.0,30.14,NE,51,4.0,16.0,87,0.00,,---,0.00,VWS V13.01,2013-05-04 13:47:00,
2013-05-04 09:49:00,49.8,46.1,30.14,ESE,115,7.0,16.0,87,0.00,,---,0.00,VWS V13.01,2013-05-04 13:49:00,
2013-05-04 09:50:00,49.8,46.1,30.14,East,87,4.0,16.0,87,0.00,,---,0.00,VWS V13.01,2013-05-04 13:50:00,
2013-05-04 09:51:00,49.9,46.2,30.14,ENE,66,2.0,16.0,87,0.00,,---,0.00,VWS V13.01,2013-05-04 13:51:00,
2013-05-04 09:52:00,49.9,46.2,30.14,East,80,4.0,16.0,87,0.00,,---,0.00,VWS V13.01,2013-05-04 13:52:00,
2013-05-04 09:54:00,50.0,46.3,30.14,NE,52,1.0,16.0,87,0.00,,---,0.00,VWS V13.01,2013-05-04 13:54:00,
2013-05-04 09:55:00,50.0,46.3,30.14,ENE,59,6.0,16.0,87,0.00,,---,0.00,VWS V13.01,2013-05-04 13:55:00,
2013-05-04 09:57:00,50.1,46.4,30.14,NE,53,3.0,16.0,87,0.00,,---,0.00,VWS V13.01,2013-05-04 13:57:00,
2013-05-04 09:59:00,50.2,46.5,30.14,NE,54,5.0,16.0,87,0.00,,---,0.00,VWS V13.01,2013-05-04 13:59:00,
2013-05-04 10:00:00,50.2,46.5,30.14,ENE,76,9.0,16.0,87,0.00,,---,0.00,VWS V13.01,2013-05-04 14:00:00,
2013-05-04 10:02:00,50.3,46.3,30.14,East,99,5.0,13.0,86,0.00,,---,0.00,VWS V13.01,2013-05-04 14:02:00,
2013-05-04 10:03:00,50.3,46.3,30.14,NE,37,8.0,13.0,86,0.00,,---,0.00,VWS V13.01,2013-05-04 14:03:00,
2013-05-04 10:04:00,50.4,46.4,30.14,NE,42,3.0,13.0,86,0.00,,---,0.00,VWS V13.01,2013-05-04 14:04:00,
2013-05-04 10:06:00,50.4,46.4,30.14,East,93,5.0,13.0,86,0.00,,---,0.00,VWS V13.01,2013-05-04 14:06:00,
2013-05-04 10:07:00,50.4,46.4,30.14,NNE,19,10.0,13.0,86,0.00,,---,0.00,VWS V13.01,2013-05-04 14:07:00,
2013-05-04 10:08:00,50.5,46.5,30.14,NE,54,5.0,13.0,86,0.00,,---,0.00,VWS V13.01,2013-05-04 14:08:00,
2013-05-04 10:10:00,50.5,46.5,30.14,NE,49,3.0,13.0,86,0.00,,---,0.00,VWS V13.01,2013-05-04 14:10:00,
2013-05-04 10:11:00,50.5,46.5,30.14,NE,50,8.0,13.0,86,0.00,,---,0.00,VWS V13.01,2013-05-04 14:11:00,
2013-05-04 10:12:00,50.6,46.6,30.14,NE,38,0.0,13.0,86,0.00,,---,0.00,VWS V13.01,2013-05-04 14:12:00,
2013-05-04 10:13:00,50.6,46.6,30.14,ENE,59,4.0,13.0,86,0.00,,---,0.00,VWS V13.01,2013-05-04 14:13:00,
2013-05-04 10:15:00,50.7,46.7,30.14,East,90,7.0,13.0,86,0.00,,---,0.00,VWS V13.01,2013-05-04 14:15:00,
2013-05-04 10:16:00,50.7,46.4,30.14,ESE,121,5.0,13.0,85,0.00,,---,0.00,VWS V13.01,2013-05-04 14:16:00,
2013-05-04 10:17:00,50.8,46.5,30.14,NE,56,5.0,13.0,85,0.00,,---,0.00,VWS V13.01,2013-05-04 14:17:00,
2013-05-04 10:18:00,50.8,46.5,30.14,ENE,69,8.0,13.0,85,0.00,,---,0.00,VWS V13.01,2013-05-04 14:18:00,
2013-05-04 10:20:00,50.8,46.5,30.14,ENE,61,4.0,13.0,85,0.00,,---,0.00,VWS V13.01,2013-05-04 14:20:00,
2013-05-04 10:21:00,50.8,46.2,30.14,NE,36,3.0,13.0,84,0.00,,---,0.00,VWS V13.01,2013-05-04 14:21:00,
2013-05-04 10:22:00,50.9,46.6,30.14,ESE,102,0.0,13.0,85,0.00,,---,0.00,VWS V13.01,2013-05-04 14:22:00,
2013-05-04 10:23:00,50.9,46.2,30.14,East,85,6.0,13.0,84,0.00,,---,0.00,VWS V13.01,2013-05-04 14:23:00,
2013-05-04 10:25:00,50.9,46.6,30.14,NE,45,16.0,16.0,85,0.00,,---,0.00,VWS V13.01,2013-05-04 14:25:00,
2013-05-04 10:26:00,50.9,46.2,30.14,ESE,112,1.0,16.0,84,0.00,,---,0.00,VWS V13.01,2013-05-04 14:26:00,
2013-05-04 10:27:00,51.0,46.3,30.14,NE,48,6.0,16.0,84,0.00,,---,0.00,VWS V13.01,2013-05-04 14:27:00,
2013-05-04 10:28:00,51.0,46.3,30.14,East,96,10.0,16.0,84,0.00,,---,0.00,VWS V13.01,2013-05-04 14:28:00,
2013-05-04 10:30:00,51.0,46.3,30.14,ENE,64,4.0,16.0,84,0.00,,---,0.00,VWS V13.01,2013-05-04 14:30:00,
2013-05-04 10:31:00,51.0,46.3,30.14,ENE,72,4.0,7.0,84,0.00,,---,0.00,VWS V13.01,2013-05-04 14:31:00,
2013-05-04 10:32:00,51.0,46.3,30.14,ENE,70,10.0,10.0,84,0.00,,---,0.00,VWS V13.01,2013-05-04 14:32:00,
2013-05-04 10:33:00,51.0,46.3,30.14,East,83,2.0,10.0,84,0.00,,---,0.00,VWS V13.01,2013-05-04 14:33:00,
2013-05-04 10:35:00,51.0,46.3,30.14,East,81,4.0,13.0,84,0.00,,---,0.00,VWS V13.01,2013-05-04 14:35:00,
2013-05-04 10:36:00,51.0,46.3,30.14,East,98,0.0,13.0,84,0.00,,---,0.00,VWS V13.01,2013-05-04 14:36:00,
2013-05-04 10:37:00,51.1,46.4,30.14,ENE,70,6.0,13.0,84,0.00,,---,0.00,VWS V13.01,2013-05-04 14:37:00,
2013-05-04 10:38:00,51.1,46.1,30.14,NE,55,4.0,13.0,83,0.00,,---,0.00,VWS V13.01,2013-05-04 14:38:00,
2013-05-04 10:40:00,51.2,46.2,30.14,East,89,4.0,13.0,83,0.00,,---,0.00,VWS V13.01,2013-05-04 14:40:00,
2013-05-04 10:42:00,51.2,46.2,30.14,NNW,346,3.0,14.0,83,0.00,,---,0.00,VWS V13.01,2013-05-04 14:42:00,
2013-05-04 10:43:00,51.3,46.3,30.14,East,80,1.0,14.0,83,0.00,,---,0.00,VWS V13.01,2013-05-04 14:43:00,
2013-05-04 10:45:00,51.3,46.3,30.14,ESE,102,2.0,19.0,83,0.00,,---,0.00,VWS V13.01,2013-05-04 14:45:00,
2013-05-04 10:47:00,51.3,46.3,30.13,NE,56,4.0,19.0,83,0.00,,---,0.00,VWS V13.01,2013-05-04 14:47:00,
2013-05-04 10:48:00,51.3,46.3,30.13,ENE,78,4.0,19.0,83,0.00,,---,0.00,VWS V13.01,2013-05-04 14:48:00,
2013-05-04 10:50:00,51.4,46.4,30.13,NNE,33,1.0,19.0,83,0.00,,---,0.00,VWS V13.01,2013-05-04 14:50:00,
2013-05-04 10:52:00,51.5,46.5,30.13,North,355,5.0,19.0,83,0.00,,---,0.00,VWS V13.01,2013-05-04 14:52:00,
2013-05-04 10:53:00,51.5,46.5,30.13,ESE,105,6.0,19.0,83,0.00,,---,0.00,VWS V13.01,2013-05-04 14:53:00,
2013-05-04 10:56:00,51.7,46.7,30.14,NNE,19,11.0,19.0,83,0.00,,---,0.00,VWS V13.01,2013-05-04 14:56:00,
2013-05-04 10:57:00,51.7,46.4,30.13,East,96,6.0,19.0,82,0.00,,---,0.00,VWS V13.01,2013-05-04 14:57:00,
2013-05-04 10:58:00,51.7,46.4,30.13,NE,51,11.0,19.0,82,0.00,,---,0.00,VWS V13.01,2013-05-04 14:58:00,
2013-05-04 11:01:00,51.8,46.5,30.13,ENE,76,8.0,9.0,82,0.00,,---,0.00,VWS V13.01,2013-05-04 15:01:00,
2013-05-04 11:03:00,51.8,46.5,30.13,NE,37,11.0,13.0,82,0.00,,---,0.00,VWS V13.01,2013-05-04 15:03:00,
2013-05-04 11:04:00,51.9,46.6,30.13,ENE,78,6.0,13.0,82,0.00,,---,0.00,VWS V13.01,2013-05-04 15:04:00,
2013-05-04 11:06:00,51.9,46.6,30.13,NE,52,0.0,13.0,82,0.00,,---,0.00,VWS V13.01,2013-05-04 15:06:00,
2013-05-04 11:08:00,52.0,46.7,30.13,ENE,72,7.0,13.0,82,0.00,,---,0.00,VWS V13.01,2013-05-04 15:08:00,
2013-05-04 11:09:00,52.1,46.8,30.13,NE,34,2.0,13.0,82,0.00,,---,0.00,VWS V13.01,2013-05-04 15:09:00,
2013-05-04 11:12:00,52.3,47.0,30.13,NE,44,6.0,13.0,82,0.00,,---,0.00,VWS V13.01,2013-05-04 15:12:00,
2013-05-04 11:13:00,52.4,47.1,30.13,North,11,7.0,13.0,82,0.00,,---,0.00,VWS V13.01,2013-05-04 15:13:00,
2013-05-04 11:14:00,52.6,46.9,30.13,ENE,63,3.0,13.0,81,0.00,,---,0.00,VWS V13.01,2013-05-04 15:14:00,
2013-05-04 11:17:00,52.9,47.2,30.13,ENE,75,13.0,17.0,81,0.00,,---,0.00,VWS V13.01,2013-05-04 15:17:00,
2013-05-04 11:18:00,52.9,47.2,30.13,NE,51,11.0,17.0,81,0.00,,---,0.00,VWS V13.01,2013-05-04 15:18:00,
2013-05-04 11:20:00,53.1,47.1,30.13,ENE,65,9.0,17.0,80,0.00,,---,0.00,VWS V13.01,2013-05-04 15:20:00,
2013-05-04 11:22:00,53.6,47.9,30.13,NE,56,5.0,17.0,81,0.00,,---,0.00,VWS V13.01,2013-05-04 15:22:00,
2013-05-04 11:23:00,53.6,47.9,30.13,ENE,67,6.0,17.0,81,0.00,,---,0.00,VWS V13.01,2013-05-04 15:23:00,
2013-05-04 11:25:00,53.9,47.9,30.12,ENE,65,0.0,17.0,80,0.00,,---,0.00,VWS V13.01,2013-05-04 15:25:00,
2013-05-04 11:28:00,54.2,47.8,30.13,ENE,59,6.0,19.0,79,0.00,,---,0.00,VWS V13.01,2013-05-04 15:28:00,
2013-05-04 11:30:00,54.3,47.6,30.13,NNE,30,1.0,19.0,78,0.00,,---,0.00,VWS V13.01,2013-05-04 15:30:00,
2013-05-04 11:33:00,54.5,47.8,30.13,NNE,30,5.0,10.0,78,0.00,,---,0.00,VWS V13.01,2013-05-04 15:33:00,
2013-05-04 11:34:00,54.6,47.9,30.13,East,81,9.0,12.0,78,0.00,,---,0.00,VWS V13.01,2013-05-04 15:34:00,
2013-05-04 11:35:00,54.6,47.5,30.12,East,83,0.0,12.0,77,0.00,,---,0.00,VWS V13.01,2013-05-04 15:35:00,
2013-05-04 11:38:00,54.7,47.6,30.13,ENE,71,6.0,12.0,77,0.00,,---,0.00,VWS V13.01,2013-05-04 15:38:00,
2013-05-04 11:39:00,54.8,47.7,30.13,East,84,0.0,13.0,77,0.00,,---,0.00,VWS V13.01,2013-05-04 15:39:00,
2013-05-04 11:40:00,54.8,47.7,30.12,ENE,69,3.0,13.0,77,0.00,,---,0.00,VWS V13.01,2013-05-04 15:40:00,
2013-05-04 11:43:00,55.1,48.4,30.13,ENE,65,14.0,16.0,78,0.00,,---,0.00,VWS V13.01,2013-05-04 15:43:00,
2013-05-04 11:44:00,55.3,47.9,30.12,ENE,78,6.0,17.0,76,0.00,,---,0.00,VWS V13.01,2013-05-04 15:44:00,
2013-05-04 11:45:00,55.4,48.0,30.12,ENE,72,5.0,17.0,76,0.00,,---,0.00,VWS V13.01,2013-05-04 15:45:00,
2013-05-04 11:48:00,55.7,47.9,30.12,East,82,11.0,17.0,75,0.00,,---,0.00,VWS V13.01,2013-05-04 15:48:00,
2013-05-04 11:49:00,55.8,48.0,30.12,ESE,105,4.0,17.0,75,0.00,,---,0.00,VWS V13.01,2013-05-04 15:49:00,
2013-05-04 11:50:00,55.9,48.1,30.12,East,88,6.0,17.0,75,0.00,,---,0.00,VWS V13.01,2013-05-04 15:50:00,
2013-05-04 11:53:00,56.3,48.8,30.12,NE,56,6.0,17.0,76,0.00,,---,0.00,VWS V13.01,2013-05-04 15:53:00,
2013-05-04 11:54:00,56.5,48.7,30.12,SSE,148,4.0,17.0,75,0.00,,---,0.00,VWS V13.01,2013-05-04 15:54:00,
2013-05-04 11:55:00,56.6,48.8,30.12,East,101,3.0,17.0,75,0.00,,---,0.00,VWS V13.01,2013-05-04 15:55:00,
2013-05-04 11:58:00,57.2,48.6,30.12,NNE,27,16.0,17.0,73,0.00,,---,0.00,VWS V13.01,2013-05-04 15:58:00,
2013-05-04 11:59:00,57.2,48.6,30.12,East,84,9.0,17.0,73,0.00,,---,0.00,VWS V13.01,2013-05-04 15:59:00,
2013-05-04 12:00:00,57.2,48.3,30.12,ESE,109,6.0,17.0,72,0.00,,---,0.00,VWS V13.01,2013-05-04 16:00:00,
2013-05-04 12:03:00,57.4,48.5,30.12,East,91,0.0,15.0,72,0.00,,---,0.00,VWS V13.01,2013-05-04 16:03:00,
2013-05-04 12:04:00,57.4,48.5,30.12,East,100,0.0,15.0,72,0.00,,---,0.00,VWS V13.01,2013-05-04 16:04:00,
2013-05-04 12:05:00,57.5,48.6,30.12,East,86,6.0,15.0,72,0.00,,---,0.00,VWS V13.01,2013-05-04 16:05:00,
2013-05-04 12:06:00,57.5,48.6,30.12,ENE,64,5.0,15.0,72,0.00,,---,0.00,VWS V13.01,2013-05-04 16:06:00,
2013-05-04 12:09:00,57.6,48.7,30.12,NE,45,0.0,15.0,72,0.00,,---,0.00,VWS V13.01,2013-05-04 16:09:00,
2013-05-04 12:10:00,57.7,48.8,30.11,East,83,1.0,15.0,72,0.00,,---,0.00,VWS V13.01,2013-05-04 16:10:00,
2013-05-04 12:11:00,57.7,48.8,30.11,ENE,69,6.0,15.0,72,0.00,,---,0.00,VWS V13.01,2013-05-04 16:11:00,
2013-05-04 12:14:00,57.9,48.6,30.11,ENE,74,4.0,15.0,71,0.00,,---,0.00,VWS V13.01,2013-05-04 16:14:00,
2013-05-04 12:15:00,58.0,49.0,30.11,ENE,60,2.0,15.0,72,0.00,,---,0.00,VWS V13.01,2013-05-04 16:15:00,
2013-05-04 12:16:00,58.0,49.0,30.11,NE,40,1.0,15.0,72,0.00,,---,0.00,VWS V13.01,2013-05-04 16:16:00,
2013-05-04 12:19:00,58.0,48.3,30.12,East,93,3.0,15.0,70,0.00,,---,0.00,VWS V13.01,2013-05-04 16:19:00,
2013-05-04 12:20:00,58.0,48.3,30.12,ENE,64,6.0,15.0,70,0.00,,---,0.00,VWS V13.01,2013-05-04 16:20:00,
2013-05-04 12:21:00,58.0,48.3,30.12,SE,128,6.0,15.0,70,0.00,,---,0.00,VWS V13.01,2013-05-04 16:21:00,
2013-05-04 12:24:00,58.2,48.5,30.11,North,5,5.0,15.0,70,0.00,,---,0.00,VWS V13.01,2013-05-04 16:24:00,
2013-05-04 12:25:00,58.2,48.5,30.11,SE,134,3.0,15.0,70,0.00,,---,0.00,VWS V13.01,2013-05-04 16:25:00,
2013-05-04 12:26:00,58.3,49.0,30.12,NE,56,7.0,15.0,71,0.00,,---,0.00,VWS V13.01,2013-05-04 16:26:00,
2013-05-04 12:29:00,58.7,49.3,30.11,NE,47,0.0,15.0,71,0.00,,---,0.00,VWS V13.01,2013-05-04 16:29:00,
2013-05-04 12:30:00,58.8,49.4,30.11,ESE,111,6.0,15.0,71,0.00,,---,0.00,VWS V13.01,2013-05-04 16:30:00,
2013-05-04 12:31:00,59.0,49.6,30.11,SSW,196,1.0,15.0,71,0.00,,---,0.00,VWS V13.01,2013-05-04 16:31:00,
2013-05-04 12:34:00,59.3,49.9,30.11,NE,44,1.0,12.0,71,0.00,,---,0.00,VWS V13.01,2013-05-04 16:34:00,
2013-05-04 12:35:00,59.4,49.6,30.11,NE,40,1.0,12.0,70,0.00,,---,0.00,VWS V13.01,2013-05-04 16:35:00,
2013-05-04 12:36:00,59.5,49.7,30.11,ENE,76,6.0,12.0,70,0.00,,---,0.00,VWS V13.01,2013-05-04 16:36:00,
2013-05-04 12:39:00,59.9,50.1,30.10,NE,37,5.0,12.0,70,0.00,,---,0.00,VWS V13.01,2013-05-04 16:39:00,
2013-05-04 12:40:00,59.9,49.7,30.10,East,79,7.0,12.0,69,0.00,,---,0.00,VWS V13.01,2013-05-04 16:40:00,
2013-05-04 12:41:00,59.9,49.7,30.10,NE,34,4.0,12.0,69,0.00,,---,0.00,VWS V13.01,2013-05-04 16:41:00,
2013-05-04 12:45:00,60.1,49.9,30.11,ENE,68,1.0,15.0,69,0.00,,---,0.00,VWS V13.01,2013-05-04 16:45:00,
2013-05-04 12:46:00,60.1,49.5,30.11,ENE,59,9.0,15.0,68,0.00,,---,0.00,VWS V13.01,2013-05-04 16:46:00,
2013-05-04 12:50:00,60.1,49.5,30.10,NE,37,0.0,15.0,68,0.00,,---,0.00,VWS V13.01,2013-05-04 16:50:00,
2013-05-04 12:51:00,60.1,49.5,30.10,East,89,9.0,15.0,68,0.00,,---,0.00,VWS V13.01,2013-05-04 16:51:00,
2013-05-04 12:52:00,60.1,49.5,30.10,East,90,8.0,15.0,68,0.00,,---,0.00,VWS V13.01,2013-05-04 16:52:00,
2013-05-04 12:55:00,60.2,49.2,30.10,East,91,4.0,15.0,67,0.00,,---,0.00,VWS V13.01,2013-05-04 16:55:00,
2013-05-04 12:56:00,60.1,48.7,30.10,ENE,63,4.0,16.0,66,0.00,,---,0.00,VWS V13.01,2013-05-04 16:56:00,
2013-05-04 12:57:00,60.1,48.3,30.10,ENE,63,13.0,16.0,65,0.00,,---,0.00,VWS V13.01,2013-05-04 16:57:00,
2013-05-04 13:00:00,59.9,47.7,30.10,ESE,109,4.0,17.0,64,0.00,,---,0.00,VWS V13.01,2013-05-04 17:00:00,
2013-05-04 13:01:00,59.9,48.5,30.10,East,86,4.0,13.0,66,0.00,,---,0.00,VWS V13.01,2013-05-04 17:01:00,
2013-05-04 13:02:00,59.8,48.4,30.10,NE,54,7.0,13.0,66,0.00,,---,0.00,VWS V13.01,2013-05-04 17:02:00,
2013-05-04 13:05:00,59.9,48.5,30.10,NE,46,3.0,14.0,66,0.00,,---,0.00,VWS V13.01,2013-05-04 17:05:00,
2013-05-04 13:06:00,60.0,48.6,30.10,NE,35,4.0,14.0,66,0.00,,---,0.00,VWS V13.01,2013-05-04 17:06:00,
2013-05-04 13:07:00,60.1,49.1,30.10,ESE,118,6.0,14.0,67,0.00,,---,0.00,VWS V13.01,2013-05-04 17:07:00,
2013-05-04 13:10:00,60.2,48.8,30.10,ENE,57,7.0,15.0,66,0.00,,---,0.00,VWS V13.01,2013-05-04 17:10:00,
2013-05-04 13:11:00,60.2,48.8,30.10,ESE,105,3.0,15.0,66,0.00,,---,0.00,VWS V13.01,2013-05-04 17:11:00,
2013-05-04 13:12:00,60.2,48.8,30.10,East,88,4.0,15.0,66,0.00,,---,0.00,VWS V13.01,2013-05-04 17:12:00,
2013-05-04 13:13:00,60.3,48.9,30.10,ENE,68,12.0,15.0,66,0.00,,---,0.00,VWS V13.01,2013-05-04 17:13:00,
2013-05-04 13:15:00,60.4,49.0,30.09,ESE,118,4.0,15.0,66,0.00,,---,0.00,VWS V13.01,2013-05-04 17:15:00,
2013-05-04 13:16:00,60.4,49.0,30.09,ENE,71,9.0,15.0,66,0.00,,---,0.00,VWS V13.01,2013-05-04 17:16:00,
2013-05-04 13:17:00,60.4,48.6,30.09,NE,55,1.0,15.0,65,0.00,,---,0.00,VWS V13.01,2013-05-04 17:17:00,
2013-05-04 13:18:00,60.4,48.6,30.09,NE,51,4.0,15.0,65,0.00,,---,0.00,VWS V13.01,2013-05-04 17:18:00,
2013-05-04 13:20:00,60.6,49.2,30.09,NNW,346,0.0,15.0,66,0.00,,---,0.00,VWS V13.01,2013-05-04 17:20:00,
2013-05-04 13:21:00,60.7,49.7,30.09,NNW,346,0.0,15.0,67,0.00,,---,0.00,VWS V13.01,2013-05-04 17:21:00,
2013-05-04 13:22:00,60.8,49.0,30.09,SE,142,3.0,15.0,65,0.00,,---,0.00,VWS V13.01,2013-05-04 17:22:00,
2013-05-04 13:23:00,60.8,49.0,30.09,East,98,3.0,15.0,65,0.00,,---,0.00,VWS V13.01,2013-05-04 17:23:00,
2013-05-04 13:25:00,60.9,49.1,30.09,ENE,60,3.0,15.0,65,0.00,,---,0.00,VWS V13.01,2013-05-04 17:25:00,
2013-05-04 13:26:00,61.0,49.2,30.09,ENE,61,1.0,15.0,65,0.00,,---,0.00,VWS V13.01,2013-05-04 17:26:00,
2013-05-04 13:28:00,61.0,48.8,30.09,NE,41,1.0,15.0,64,0.00,,---,0.00,VWS V13.01,2013-05-04 17:28:00,
2013-05-04 13:30:00,61.0,48.8,30.09,WNW,300,4.0,15.0,64,0.00,,---,0.00,VWS V13.01,2013-05-04 17:30:00,
2013-05-04 13:31:00,61.1,48.4,30.09,North,360,2.0,2.0,63,0.00,,---,0.00,VWS V13.01,2013-05-04 17:31:00,
2013-05-04 13:33:00,61.1,49.3,30.09,NE,41,13.0,13.0,65,0.00,,---,0.00,VWS V13.01,2013-05-04 17:33:00,
2013-05-04 13:34:00,61.1,48.8,30.09,NE,38,6.0,14.0,64,0.00,,---,0.00,VWS V13.01,2013-05-04 17:34:00,
2013-05-04 13:35:00,61.0,48.8,30.09,East,83,6.0,14.0,64,0.00,,---,0.00,VWS V13.01,2013-05-04 17:35:00,
2013-05-04 13:36:00,61.0,48.8,30.09,ENE,67,5.0,14.0,64,0.00,,---,0.00,VWS V13.01,2013-05-04 17:36:00,
2013-05-04 13:38:00,61.0,48.8,30.09,East,83,5.0,14.0,64,0.00,,---,0.00,VWS V13.01,2013-05-04 17:38:00,
2013-05-04 13:39:00,61.0,48.8,30.09,ENE,61,1.0,14.0,64,0.00,,---,0.00,VWS V13.01,2013-05-04 17:39:00,
2013-05-04 13:40:00,61.0,48.8,30.09,NE,54,4.0,14.0,64,0.00,,---,0.00,VWS V13.01,2013-05-04 17:40:00,
2013-05-04 13:41:00,61.0,48.8,30.09,East,86,5.0,14.0,64,0.00,,---,0.00,VWS V13.01,2013-05-04 17:41:00,
2013-05-04 13:43:00,61.1,48.8,30.08,ESE,109,0.0,14.0,64,0.00,,---,0.00,VWS V13.01,2013-05-04 17:43:00,
2013-05-04 13:44:00,61.1,48.8,30.08,ESE,108,0.0,14.0,64,0.00,,---,0.00,VWS V13.01,2013-05-04 17:44:00,
2013-05-04 13:45:00,61.1,48.8,30.08,NNE,32,1.0,14.0,64,0.00,,---,0.00,VWS V13.01,2013-05-04 17:45:00,
2013-05-04 13:46:00,61.2,50.2,30.09,ENE,59,5.0,14.0,67,0.00,,---,0.00,VWS V13.01,2013-05-04 17:46:00,
2013-05-04 13:47:00,61.3,50.3,30.09,East,88,3.0,14.0,67,0.00,,---,0.00,VWS V13.01,2013-05-04 17:47:00,
2013-05-04 13:48:00,61.4,50.0,30.09,NE,44,9.0,15.0,66,0.00,,---,0.00,VWS V13.01,2013-05-04 17:48:00,
2013-05-04 13:49:00,61.4,50.0,30.09,NE,45,9.0,15.0,66,0.00,,---,0.00,VWS V13.01,2013-05-04 17:49:00,
2013-05-04 13:51:00,61.4,48.7,30.08,NNE,31,1.0,15.0,63,0.00,,---,0.00,VWS V13.01,2013-05-04 17:51:00,
2013-05-04 13:52:00,61.4,49.1,30.09,NNE,22,1.0,15.0,64,0.00,,---,0.00,VWS V13.01,2013-05-04 17:52:00,
2013-05-04 13:53:00,61.4,49.1,30.08,ENE,71,3.0,15.0,64,0.00,,---,0.00,VWS V13.01,2013-05-04 17:53:00,
2013-05-04 13:54:00,61.3,49.0,30.08,ENE,71,10.0,15.0,64,0.00,,---,0.00,VWS V13.01,2013-05-04 17:54:00,
2013-05-04 13:56:00,61.3,48.6,30.08,East,86,6.0,15.0,63,0.00,,---,0.00,VWS V13.01,2013-05-04 17:56:00,
2013-05-04 13:57:00,61.3,49.0,30.08,ENE,67,5.0,16.0,64,0.00,,---,0.00,VWS V13.01,2013-05-04 17:57:00,
2013-05-04 13:59:00,61.4,49.5,30.08,East,94,7.0,16.0,65,0.00,,---,0.00,VWS V13.01,2013-05-04 17:59:00,
2013-05-04 14:01:00,61.5,49.6,30.08,ESE,106,0.0,16.0,65,0.00,,---,0.00,VWS V13.01,2013-05-04 18:01:00,
2013-05-04 14:02:00,61.6,50.1,30.08,ENE,78,2.0,4.0,66,0.00,,---,0.00,VWS V13.01,2013-05-04 18:02:00,
2013-05-04 14:04:00,61.8,50.7,30.08,ESE,105,2.0,10.0,67,0.00,,---,0.00,VWS V13.01,2013-05-04 18:04:00,
2013-05-04 14:06:00,62.0,49.7,30.08,NE,51,5.0,10.0,64,0.00,,---,0.00,VWS V13.01,2013-05-04 18:06:00,
2013-05-04 14:07:00,62.0,49.7,30.08,NNE,33,8.0,13.0,64,0.00,,---,0.00,VWS V13.01,2013-05-04 18:07:00,
2013-05-04 14:08:00,62.0,49.7,30.08,ENE,78,4.0,13.0,64,0.00,,---,0.00,VWS V13.01,2013-05-04 18:08:00,
2013-05-04 14:09:00,62.0,49.7,30.08,ENE,68,4.0,13.0,64,0.00,,---,0.00,VWS V13.01,2013-05-04 18:09:00,
2013-05-04 14:11:00,61.9,49.6,30.08,ENE,66,3.0,13.0,64,0.00,,---,0.00,VWS V13.01,2013-05-04 18:11:00,
2013-05-04 14:12:00,61.9,49.6,30.08,NE,49,10.0,15.0,64,0.00,,---,0.00,VWS V13.01,2013-05-04 18:12:00,
2013-05-04 14:13:00,61.9,49.6,30.08,ENE,77,4.0,15.0,64,0.00,,---,0.00,VWS V13.01,2013-05-04 18:13:00,
2013-05-04 14:14:00,61.8,49.5,30.08,NNE,30,6.0,15.0,64,0.00,,---,0.00,VWS V13.01,2013-05-04 18:14:00,
2013-05-04 14:16:00,61.8,49.5,30.08,ESE,123,4.0,15.0,64,0.00,,---,0.00,VWS V13.01,2013-05-04 18:16:00,
2013-05-04 14:17:00,61.8,49.9,30.08,East,87,6.0,15.0,65,0.00,,---,0.00,VWS V13.01,2013-05-04 18:17:00,
2013-05-04 14:18:00,61.9,50.0,30.08,NNW,348,4.0,15.0,65,0.00,,---,0.00,VWS V13.01,2013-05-04 18:18:00,
2013-05-04 14:19:00,61.9,49.6,30.08,NE,44,6.0,15.0,64,0.00,,---,0.00,VWS V13.01,2013-05-04 18:19:00,
2013-05-04 14:20:00,61.9,49.6,30.08,East,79,6.0,15.0,64,0.00,,---,0.00,VWS V13.01,2013-05-04 18:20:00,
2013-05-04 14:21:00,61.9,49.6,30.07,NNW,338,5.0,15.0,64,0.00,,---,0.00,VWS V13.01,2013-05-04 18:21:00,
2013-05-04 14:22:00,61.9,50.0,30.07,NE,46,6.0,18.0,65,0.00,,---,0.00,VWS V13.01,2013-05-04 18:22:00,
2013-05-04 14:23:00,61.9,50.0,30.07,ENE,76,5.0,18.0,65,0.00,,---,0.00,VWS V13.01,2013-05-04 18:23:00,
2013-05-04 14:25:00,61.9,50.0,30.07,NE,46,12.0,18.0,65,0.00,,---,0.00,VWS V13.01,2013-05-04 18:25:00,
2013-05-04 14:26:00,61.8,49.5,30.07,ENE,67,4.0,18.0,64,0.00,,---,0.00,VWS V13.01,2013-05-04 18:26:00,
2013-05-04 14:27:00,61.8,49.9,30.07,ENE,75,6.0,18.0,65,0.00,,---,0.00,VWS V13.01,2013-05-04 18:27:00,
2013-05-04 14:28:00,61.9,50.0,30.07,ESE,113,4.0,18.0,65,0.00,,---,0.00,VWS V13.01,2013-05-04 18:28:00,
2013-05-04 14:30:00,61.9,50.4,30.07,East,93,6.0,18.0,66,0.00,,---,0.00,VWS V13.01,2013-05-04 18:30:00,
2013-05-04 14:31:00,62.0,50.5,30.07,NE,53,10.0,18.0,66,0.00,,---,0.00,VWS V13.01,2013-05-04 18:31:00,
2013-05-04 14:32:00,62.1,50.2,30.06,ENE,78,5.0,12.0,65,0.00,,---,0.00,VWS V13.01,2013-05-04 18:32:00,
2013-05-04 14:33:00,62.1,50.2,30.06,East,92,4.0,12.0,65,0.00,,---,0.00,VWS V13.01,2013-05-04 18:33:00,
2013-05-04 14:35:00,62.2,50.3,30.06,NNE,18,6.0,12.0,65,0.00,,---,0.00,VWS V13.01,2013-05-04 18:35:00,
2013-05-04 14:36:00,62.2,50.3,30.06,North,360,2.0,12.0,65,0.00,,---,0.00,VWS V13.01,2013-05-04 18:36:00,
2013-05-04 14:38:00,62.4,50.5,30.06,ENE,60,13.0,15.0,65,0.00,,---,0.00,VWS V13.01,2013-05-04 18:38:00,
2013-05-04 14:40:00,62.4,50.1,30.06,NNE,15,14.0,16.0,64,0.00,,---,0.00,VWS V13.01,2013-05-04 18:40:00,
2013-05-04 14:41:00,62.4,50.1,30.06,NE,55,14.0,16.0,64,0.00,,---,0.00,VWS V13.01,2013-05-04 18:41:00,
2013-05-04 14:43:00,62.4,50.1,30.06,ENE,64,3.0,16.0,64,0.00,,---,0.00,VWS V13.01,2013-05-04 18:43:00,
2013-05-04 14:45:00,62.5,51.0,30.06,NNE,16,1.0,16.0,66,0.00,,---,0.00,VWS V13.01,2013-05-04 18:45:00,
2013-05-04 14:46:00,62.5,51.0,30.06,NNE,16,2.0,16.0,66,0.00,,---,0.00,VWS V13.01,2013-05-04 18:46:00,
2013-05-04 14:47:00,62.6,51.1,30.06,East,83,13.0,16.0,66,0.00,,---,0.00,VWS V13.01,2013-05-04 18:47:00,
2013-05-04 14:48:00,62.6,50.7,30.06,WNW,292,3.0,16.0,65,0.00,,---,0.00,VWS V13.01,2013-05-04 18:48:00,
2013-05-04 14:49:00,62.7,50.4,30.06,ENE,69,4.0,16.0,64,0.00,,---,0.00,VWS V13.01,2013-05-04 18:49:00,
2013-05-04 14:50:00,62.7,50.8,30.06,NE,44,4.0,16.0,65,0.00,,---,0.00,VWS V13.01,2013-05-04 18:50:00,
2013-05-04 14:51:00,62.7,50.8,30.06,NE,34,12.0,16.0,65,0.00,,---,0.00,VWS V13.01,2013-05-04 18:51:00,
2013-05-04 14:52:00,62.7,50.8,30.06,East,95,5.0,16.0,65,0.00,,---,0.00,VWS V13.01,2013-05-04 18:52:00,
2013-05-04 14:53:00,62.7,50.8,30.06,NE,51,12.0,19.0,65,0.00,,---,0.00,VWS V13.01,2013-05-04 18:53:00,
2013-05-04 14:54:00,62.7,50.8,30.06,North,5,9.0,19.0,65,0.00,,---,0.00,VWS V13.01,2013-05-04 18:54:00,
2013-05-04 14:56:00,62.7,50.8,30.06,East,99,4.0,19.0,65,0.00,,---,0.00,VWS V13.01,2013-05-04 18:56:00,
2013-05-04 14:57:00,62.7,51.2,30.06,NE,55,7.0,19.0,66,0.00,,---,0.00,VWS V13.01,2013-05-04 18:57:00,
2013-05-04 14:58:00,62.7,51.2,30.06,North,360,2.0,19.0,66,0.00,,---,0.00,VWS V13.01,2013-05-04 18:58:00,
2013-05-04 14:59:00,62.6,50.7,30.06,ESE,116,4.0,19.0,65,0.00,,---,0.00,VWS V13.01,2013-05-04 18:59:00,
2013-05-04 15:01:00,62.6,50.7,30.06,ENE,74,9.0,10.0,65,0.00,,---,0.00,VWS V13.01,2013-05-04 19:01:00,
2013-05-04 15:02:00,62.5,50.6,30.06,East,101,11.0,11.0,65,0.00,,---,0.00,VWS V13.01,2013-05-04 19:02:00,
2013-05-04 15:03:00,62.5,50.6,30.06,West,263,2.0,11.0,65,0.00,,---,0.00,VWS V13.01,2013-05-04 19:03:00,
2013-05-04 15:04:00,62.5,50.6,30.06,East,79,2.0,15.0,65,0.00,,---,0.00,VWS V13.01,2013-05-04 19:04:00,
2013-05-04 15:06:00,62.5,51.0,30.06,East,86,3.0,15.0,66,0.00,,---,0.00,VWS V13.01,2013-05-04 19:06:00,
2013-05-04 15:07:00,62.5,51.0,30.06,NE,54,3.0,15.0,66,0.00,,---,0.00,VWS V13.01,2013-05-04 19:07:00,
2013-05-04 15:08:00,62.6,51.5,30.06,North,11,18.0,18.0,67,0.00,,---,0.00,VWS V13.01,2013-05-04 19:08:00,
2013-05-04 15:09:00,62.6,50.7,30.06,ENE,66,6.0,18.0,65,0.00,,---,0.00,VWS V13.01,2013-05-04 19:09:00,
2013-05-04 15:12:00,62.6,51.1,30.06,East,91,6.0,18.0,66,0.00,,---,0.00,VWS V13.01,2013-05-04 19:12:00,
2013-05-04 15:13:00,62.7,51.2,30.06,ESE,102,6.0,18.0,66,0.00,,---,0.00,VWS V13.01,2013-05-04 19:13:00,
2013-05-04 15:14:00,62.7,51.2,30.06,East,82,5.0,18.0,66,0.00,,---,0.00,VWS V13.01,2013-05-04 19:14:00,
2013-05-04 15:17:00,62.6,50.7,30.06,NE,54,8.0,18.0,65,0.00,,---,0.00,VWS V13.01,2013-05-04 19:17:00,
2013-05-04 15:18:00,62.5,51.0,30.06,ESE,119,3.0,18.0,66,0.00,,---,0.00,VWS V13.01,2013-05-04 19:18:00,
2013-05-04 15:19:00,62.5,51.0,30.06,East,84,12.0,18.0,66,0.00,,---,0.00,VWS V13.01,2013-05-04 19:19:00,
2013-05-04 15:22:00,62.5,51.4,30.06,NE,52,10.0,18.0,67,0.00,,---,0.00,VWS V13.01,2013-05-04 19:22:00,
2013-05-04 15:23:00,62.4,51.3,30.06,East,83,3.0,18.0,67,0.00,,---,0.00,VWS V13.01,2013-05-04 19:23:00,
2013-05-04 15:25:00,62.3,50.8,30.06,ESE,105,8.0,18.0,66,0.00,,---,0.00,VWS V13.01,2013-05-04 19:25:00,
2013-05-04 15:27:00,62.1,50.6,30.06,East,98,3.0,18.0,66,0.00,,---,0.00,VWS V13.01,2013-05-04 19:27:00,
2013-05-04 15:28:00,62.0,50.5,30.06,East,87,6.0,18.0,66,0.00,,---,0.00,VWS V13.01,2013-05-04 19:28:00,
2013-05-04 15:30:00,61.9,50.4,30.06,ENE,66,7.0,18.0,66,0.00,,---,0.00,VWS V13.01,2013-05-04 19:30:00,
2013-05-04 15:32:00,61.9,50.8,30.06,NNE,22,8.0,13.0,67,0.00,,---,0.00,VWS V13.01,2013-05-04 19:32:00,
2013-05-04 15:33:00,61.9,50.8,30.06,SE,134,3.0,13.0,67,0.00,,---,0.00,VWS V13.01,2013-05-04 19:33:00,
2013-05-04 15:34:00,61.9,51.2,30.06,ENE,70,3.0,13.0,68,0.00,,---,0.00,VWS V13.01,2013-05-04 19:34:00,
2013-05-04 15:35:00,62.0,51.3,30.06,North,355,5.0,13.0,68,0.00,,---,0.00,VWS V13.01,2013-05-04 19:35:00,
2013-05-04 15:37:00,62.0,51.3,30.06,East,98,9.0,13.0,68,0.00,,---,0.00,VWS V13.01,2013-05-04 19:37:00,
2013-05-04 15:38:00,62.1,51.4,30.06,East,90,12.0,13.0,68,0.00,,---,0.00,VWS V13.01,2013-05-04 19:38:00,
2013-05-04 15:39:00,62.1,51.0,30.06,South,173,2.0,13.0,67,0.00,,---,0.00,VWS V13.01,2013-05-04 19:39:00,
2013-05-04 15:40:00,62.2,51.1,30.06,NE,49,11.0,13.0,67,0.00,,---,0.00,VWS V13.01,2013-05-04 19:40:00,
2013-05-04 15:43:00,62.2,51.1,30.05,ENE,57,4.0,16.0,67,0.00,,---,0.00,VWS V13.01,2013-05-04 19:43:00,
2013-05-04 15:44:00,62.3,50.8,30.06,NNE,21,12.0,16.0,66,0.00,,---,0.00,VWS V13.01,2013-05-04 19:44:00,
2013-05-04 15:45:00,62.3,50.8,30.05,ESE,117,3.0,16.0,66,0.00,,---,0.00,VWS V13.01,2013-05-04 19:45:00,
2013-05-04 15:48:00,62.3,50.8,30.06,NE,51,5.0,16.0,66,0.00,,---,0.00,VWS V13.01,2013-05-04 19:48:00,
2013-05-04 15:49:00,62.3,50.8,30.06,ENE,71,12.0,16.0,66,0.00,,---,0.00,VWS V13.01,2013-05-04 19:49:00,
2013-05-04 15:50:00,62.2,50.3,30.05,NE,53,14.0,17.0,65,0.00,,---,0.00,VWS V13.01,2013-05-04 19:50:00,
2013-05-04 15:53:00,61.8,50.3,30.06,NNW,329,4.0,17.0,66,0.00,,---,0.00,VWS V13.01,2013-05-04 19:53:00,
2013-05-04 15:54:00,61.8,50.7,30.06,ENE,72,6.0,17.0,67,0.00,,---,0.00,VWS V13.01,2013-05-04 19:54:00,
2013-05-04 15:56:00,61.6,50.1,30.06,ENE,72,0.0,17.0,66,0.00,,---,0.00,VWS V13.01,2013-05-04 19:56:00,
2013-05-04 15:58:00,61.5,50.0,30.06,ENE,61,7.0,18.0,66,0.00,,---,0.00,VWS V13.01,2013-05-04 19:58:00,
2013-05-04 15:59:00,61.3,49.9,30.05,East,80,3.0,18.0,66,0.00,,---,0.00,VWS V13.01,2013-05-04 19:59:00,
2013-05-04 16:01:00,61.2,50.2,30.05,ENE,57,3.0,10.0,67,0.00,,---,0.00,VWS V13.01,2013-05-04 20:01:00,
2013-05-04 16:03:00,61.1,50.1,30.05,SE,132,5.0,14.0,67,0.00,,---,0.00,VWS V13.01,2013-05-04 20:03:00,
2013-05-04 16:04:00,61.0,50.0,30.05,East,80,7.0,14.0,67,0.00,,---,0.00,VWS V13.01,2013-05-04 20:04:00,
2013-05-04 16:07:00,60.9,50.3,30.05,NE,47,11.0,15.0,68,0.00,,---,0.00,VWS V13.01,2013-05-04 20:07:00,
2013-05-04 16:08:00,60.9,50.3,30.05,ENE,76,6.0,15.0,68,0.00,,---,0.00,VWS V13.01,2013-05-04 20:08:00,
2013-05-04 16:09:00,60.9,50.3,30.05,ENE,61,9.0,15.0,68,0.00,,---,0.00,VWS V13.01,2013-05-04 20:09:00,
2013-05-04 16:12:00,60.9,50.3,30.05,NE,55,6.0,18.0,68,0.00,,---,0.00,VWS V13.01,2013-05-04 20:12:00,
2013-05-04 16:13:00,61.0,50.4,30.05,NE,51,3.0,18.0,68,0.00,,---,0.00,VWS V13.01,2013-05-04 20:13:00,
2013-05-04 16:14:00,61.0,50.4,30.05,NNE,23,3.0,18.0,68,0.00,,---,0.00,VWS V13.01,2013-05-04 20:14:00,
2013-05-04 16:17:00,61.1,50.1,30.05,ESE,111,2.0,18.0,67,0.00,,---,0.00,VWS V13.01,2013-05-04 20:17:00,
2013-05-04 16:18:00,61.1,50.1,30.05,ENE,63,7.0,18.0,67,0.00,,---,0.00,VWS V13.01,2013-05-04 20:18:00,
2013-05-04 16:19:00,61.1,50.1,30.05,East,95,0.0,18.0,67,0.00,,---,0.00,VWS V13.01,2013-05-04 20:19:00,
2013-05-04 16:20:00,61.1,50.5,30.05,NE,51,4.0,18.0,68,0.00,,---,0.00,VWS V13.01,2013-05-04 20:20:00,
2013-05-04 16:22:00,61.0,50.4,30.05,ENE,72,2.0,18.0,68,0.00,,---,0.00,VWS V13.01,2013-05-04 20:22:00,
2013-05-04 16:23:00,60.9,50.3,30.05,NE,38,5.0,18.0,68,0.00,,---,0.00,VWS V13.01,2013-05-04 20:23:00,
2013-05-04 16:24:00,60.9,50.3,30.05,NE,37,2.0,18.0,68,0.00,,---,0.00,VWS V13.01,2013-05-04 20:24:00,
2013-05-04 16:25:00,60.9,50.3,30.05,East,81,5.0,18.0,68,0.00,,---,0.00,VWS V13.01,2013-05-04 20:25:00,
2013-05-04 16:28:00,60.9,50.7,30.05,ENE,70,12.0,18.0,69,0.00,,---,0.00,VWS V13.01,2013-05-04 20:28:00,
2013-05-04 16:29:00,60.8,50.2,30.05,ENE,72,5.0,18.0,68,0.00,,---,0.00,VWS V13.01,2013-05-04 20:29:00,
2013-05-04 16:30:00,60.8,50.2,30.05,East,98,2.0,18.0,68,0.00,,---,0.00,VWS V13.01,2013-05-04 20:30:00,
2013-05-04 16:33:00,60.7,50.5,30.05,ENE,71,8.0,13.0,69,0.00,,---,0.00,VWS V13.01,2013-05-04 20:33:00,
2013-05-04 16:34:00,60.7,50.1,30.05,NE,38,5.0,13.0,68,0.00,,---,0.00,VWS V13.01,2013-05-04 20:34:00,
2013-05-04 16:35:00,60.7,49.7,30.05,NNE,25,3.0,13.0,67,0.00,,---,0.00,VWS V13.01,2013-05-04 20:35:00,
2013-05-04 16:38:00,60.6,50.0,30.05,ENE,69,4.0,13.0,68,0.00,,---,0.00,VWS V13.01,2013-05-04 20:38:00,
2013-05-04 16:39:00,60.6,50.0,30.05,East,84,7.0,13.0,68,0.00,,---,0.00,VWS V13.01,2013-05-04 20:39:00,
2013-05-04 16:40:00,60.6,50.8,30.04,NNE,17,2.0,14.0,70,0.00,,---,0.00,VWS V13.01,2013-05-04 20:40:00,
2013-05-04 16:43:00,60.7,50.5,30.04,NE,43,2.0,14.0,69,0.00,,---,0.00,VWS V13.01,2013-05-04 20:43:00,
2013-05-04 16:44:00,60.7,50.5,30.04,ENE,67,3.0,14.0,69,0.00,,---,0.00,VWS V13.01,2013-05-04 20:44:00,
2013-05-04 16:45:00,60.8,50.6,30.04,ENE,66,3.0,14.0,69,0.00,,---,0.00,VWS V13.01,2013-05-04 20:45:00,
2013-05-04 16:48:00,60.7,50.5,30.04,NE,54,5.0,14.0,69,0.00,,---,0.00,VWS V13.01,2013-05-04 20:48:00,
2013-05-04 16:49:00,60.7,50.5,30.04,NE,40,3.0,14.0,69,0.00,,---,0.00,VWS V13.01,2013-05-04 20:49:00,
2013-05-04 16:50:00,60.7,50.5,30.04,ENE,63,7.0,14.0,69,0.00,,---,0.00,VWS V13.01,2013-05-04 20:50:00,
2013-05-04 16:53:00,60.7,50.9,30.04,East,98,3.0,14.0,70,0.00,,---,0.00,VWS V13.01,2013-05-04 20:53:00,
2013-05-04 16:55:00,60.7,50.9,30.03,NNE,31,6.0,14.0,70,0.00,,---,0.00,VWS V13.01,2013-05-04 20:55:00,
2013-05-04 16:56:00,60.7,50.9,30.03,ENE,57,0.0,14.0,70,0.00,,---,0.00,VWS V13.01,2013-05-04 20:56:00,
2013-05-04 16:58:00,60.7,50.9,30.03,ENE,65,5.0,16.0,70,0.00,,---,0.00,VWS V13.01,2013-05-04 20:58:00,
2013-05-04 17:00:00,60.7,50.9,30.03,NE,49,0.0,16.0,70,0.00,,---,0.00,VWS V13.01,2013-05-04 21:00:00,
2013-05-04 17:01:00,60.7,50.9,30.03,ENE,71,3.0,16.0,70,0.00,,---,0.00,VWS V13.01,2013-05-04 21:01:00,
2013-05-04 17:04:00,60.6,50.8,30.03,NE,49,0.0,13.0,70,0.00,,---,0.00,VWS V13.01,2013-05-04 21:04:00,
2013-05-04 17:05:00,60.5,50.7,30.03,NE,39,12.0,16.0,70,0.00,,---,0.00,VWS V13.01,2013-05-04 21:05:00,
2013-05-04 17:06:00,60.5,50.7,30.03,East,90,4.0,16.0,70,0.00,,---,0.00,VWS V13.01,2013-05-04 21:06:00,
2013-05-04 17:09:00,60.5,51.1,30.03,ENE,60,5.0,16.0,71,0.00,,---,0.00,VWS V13.01,2013-05-04 21:09:00,
2013-05-04 17:10:00,60.5,50.7,30.03,SE,141,5.0,16.0,70,0.00,,---,0.00,VWS V13.01,2013-05-04 21:10:00,
2013-05-04 17:11:00,60.5,51.1,30.03,East,80,6.0,16.0,71,0.00,,---,0.00,VWS V13.01,2013-05-04 21:11:00,
2013-05-04 17:14:00,60.6,51.2,30.02,ENE,57,11.0,16.0,71,0.00,,---,0.00,VWS V13.01,2013-05-04 21:14:00,
2013-05-04 17:15:00,60.7,51.2,30.03,NE,53,7.0,16.0,71,0.00,,---,0.00,VWS V13.01,2013-05-04 21:15:00,
2013-05-04 17:16:00,60.7,51.6,30.03,ENE,75,9.0,19.0,72,0.00,,---,0.00,VWS V13.01,2013-05-04 21:16:00,
2013-05-04 17:19:00,60.7,51.2,30.03,ENE,64,5.0,19.0,71,0.00,,---,0.00,VWS V13.01,2013-05-04 21:19:00,
2013-05-04 17:20:00,60.7,51.2,30.03,NNW,341,3.0,19.0,71,0.00,,---,0.00,VWS V13.01,2013-05-04 21:20:00,
2013-05-04 17:21:00,60.7,51.2,30.03,ENE,63,6.0,19.0,71,0.00,,---,0.00,VWS V13.01,2013-05-04 21:21:00,
2013-05-04 17:24:00,60.7,51.6,30.03,ENE,67,4.0,19.0,72,0.00,,---,0.00,VWS V13.01,2013-05-04 21:24:00,
2013-05-04 17:25:00,60.7,51.6,30.03,NE,34,12.0,19.0,72,0.00,,---,0.00,VWS V13.01,2013-05-04 21:25:00,
2013-05-04 17:26:00,60.7,51.6,30.03,NE,49,9.0,19.0,72,0.00,,---,0.00,VWS V13.01,2013-05-04 21:26:00,
2013-05-04 17:29:00,60.5,51.4,30.03,NE,56,5.0,19.0,72,0.00,,---,0.00,VWS V13.01,2013-05-04 21:29:00,
2013-05-04 17:30:00,60.4,51.3,30.03,NE,51,3.0,19.0,72,0.00,,---,0.00,VWS V13.01,2013-05-04 21:30:00,
2013-05-04 17:31:00,60.4,51.3,30.03,ENE,63,10.0,19.0,72,0.00,,---,0.00,VWS V13.01,2013-05-04 21:31:00,
2013-05-04 17:35:00,60.3,51.2,30.03,ENE,59,4.0,16.0,72,0.00,,---,0.00,VWS V13.01,2013-05-04 21:35:00,
2013-05-04 17:36:00,60.2,51.5,30.04,NE,43,1.0,16.0,73,0.00,,---,0.00,VWS V13.01,2013-05-04 21:36:00,
2013-05-04 17:40:00,60.1,51.4,30.03,ESE,108,3.0,17.0,73,0.00,,---,0.00,VWS V13.01,2013-05-04 21:40:00,
2013-05-04 17:41:00,60.0,51.3,30.03,East,88,6.0,17.0,73,0.00,,---,0.00,VWS V13.01,2013-05-04 21:41:00,
2013-05-04 17:45:00,59.9,51.2,30.03,East,81,2.0,17.0,73,0.00,,---,0.00,VWS V13.01,2013-05-04 21:45:00,
2013-05-04 17:46:00,59.9,51.2,30.03,East,92,9.0,17.0,73,0.00,,---,0.00,VWS V13.01,2013-05-04 21:46:00,
2013-05-04 17:47:00,59.9,51.2,30.03,ENE,71,2.0,17.0,73,0.00,,---,0.00,VWS V13.01,2013-05-04 21:47:00,
2013-05-04 17:50:00,59.9,51.2,30.03,NE,45,11.0,17.0,73,0.00,,---,0.00,VWS V13.01,2013-05-04 21:50:00,
2013-05-04 17:51:00,59.8,51.1,30.03,NE,40,9.0,17.0,73,0.00,,---,0.00,VWS V13.01,2013-05-04 21:51:00,
2013-05-04 17:52:00,59.8,51.1,30.03,ENE,68,12.0,17.0,73,0.00,,---,0.00,VWS V13.01,2013-05-04 21:52:00,
2013-05-04 17:55:00,59.8,51.1,30.03,NE,46,7.0,17.0,73,0.00,,---,0.00,VWS V13.01,2013-05-04 21:55:00,
2013-05-04 17:56:00,59.7,51.0,30.03,East,79,8.0,17.0,73,0.00,,---,0.00,VWS V13.01,2013-05-04 21:56:00,
2013-05-04 17:57:00,59.7,51.4,30.03,East,92,10.0,17.0,74,0.00,,---,0.00,VWS V13.01,2013-05-04 21:57:00,
2013-05-04 18:00:00,59.7,51.4,30.03,NE,40,7.0,17.0,74,0.00,,---,0.00,VWS V13.01,2013-05-04 22:00:00,
2013-05-04 18:01:00,59.7,51.4,30.03,ENE,58,7.0,14.0,74,0.00,,---,0.00,VWS V13.01,2013-05-04 22:01:00,
2013-05-04 18:02:00,59.7,51.4,30.03,ENE,76,7.0,14.0,74,0.00,,---,0.00,VWS V13.01,2013-05-04 22:02:00,
2013-05-04 18:05:00,59.7,51.4,30.04,ENE,71,4.0,14.0,74,0.00,,---,0.00,VWS V13.01,2013-05-04 22:05:00,
2013-05-04 18:06:00,59.7,51.4,30.04,ESE,103,13.0,17.0,74,0.00,,---,0.00,VWS V13.01,2013-05-04 22:06:00,
2013-05-04 18:07:00,59.6,51.3,30.04,ENE,72,6.0,17.0,74,0.00,,---,0.00,VWS V13.01,2013-05-04 22:07:00,
2013-05-04 18:10:00,59.6,51.3,30.04,NNE,33,1.0,17.0,74,0.00,,---,0.00,VWS V13.01,2013-05-04 22:10:00,
2013-05-04 18:11:00,59.6,51.7,30.04,NE,34,9.0,17.0,75,0.00,,---,0.00,VWS V13.01,2013-05-04 22:11:00,
2013-05-04 18:12:00,59.6,51.7,30.04,ENE,57,9.0,17.0,75,0.00,,---,0.00,VWS V13.01,2013-05-04 22:12:00,
2013-05-04 18:13:00,59.5,51.6,30.03,East,83,6.0,17.0,75,0.00,,---,0.00,VWS V13.01,2013-05-04 22:13:00,
2013-05-04 18:15:00,59.5,51.6,30.04,NE,55,7.0,17.0,75,0.00,,---,0.00,VWS V13.01,2013-05-04 22:15:00,
2013-05-04 18:17:00,59.5,51.6,30.03,East,80,5.0,17.0,75,0.00,,---,0.00,VWS V13.01,2013-05-04 22:17:00,
2013-05-04 18:18:00,59.5,51.6,30.03,ENE,57,6.0,17.0,75,0.00,,---,0.00,VWS V13.01,2013-05-04 22:18:00,
2013-05-04 18:21:00,59.5,51.9,30.03,NW,325,6.0,17.0,76,0.00,,---,0.00,VWS V13.01,2013-05-04 22:21:00,
2013-05-04 18:22:00,59.5,51.6,30.03,SW,219,0.0,17.0,75,0.00,,---,0.00,VWS V13.01,2013-05-04 22:22:00,
2013-05-04 18:23:00,59.5,51.6,30.03,ENE,73,1.0,17.0,75,0.00,,---,0.00,VWS V13.01,2013-05-04 22:23:00,
2013-05-04 18:26:00,59.4,51.5,30.03,NE,40,2.0,17.0,75,0.00,,---,0.00,VWS V13.01,2013-05-04 22:26:00,
2013-05-04 18:27:00,59.3,51.4,30.03,ENE,63,9.0,17.0,75,0.00,,---,0.00,VWS V13.01,2013-05-04 22:27:00,
2013-05-04 18:28:00,59.2,51.3,30.03,North,360,14.0,17.0,75,0.00,,---,0.00,VWS V13.01,2013-05-04 22:28:00,
2013-05-04 18:31:00,59.0,51.5,30.04,ENE,65,0.0,2.0,76,0.00,,---,0.00,VWS V13.01,2013-05-04 22:31:00,
2013-05-04 18:32:00,59.0,51.5,30.04,NE,43,5.0,8.0,76,0.00,,---,0.00,VWS V13.01,2013-05-04 22:32:00,
2013-05-04 18:33:00,59.0,51.5,30.04,ESE,108,2.0,8.0,76,0.00,,---,0.00,VWS V13.01,2013-05-04 22:33:00,
2013-05-04 18:36:00,59.0,51.8,30.04,ENE,61,0.0,8.0,77,0.00,,---,0.00,VWS V13.01,2013-05-04 22:36:00,
2013-05-04 18:37:00,59.0,51.8,30.04,East,95,5.0,11.0,77,0.00,,---,0.00,VWS V13.01,2013-05-04 22:37:00,
2013-05-04 18:38:00,59.0,51.8,30.04,NE,44,0.0,11.0,77,0.00,,---,0.00,VWS V13.01,2013-05-04 22:38:00,
2013-05-04 18:41:00,59.0,51.8,30.04,NNE,28,2.0,13.0,77,0.00,,---,0.00,VWS V13.01,2013-05-04 22:41:00,
2013-05-04 18:42:00,59.0,51.8,30.04,ENE,73,2.0,13.0,77,0.00,,---,0.00,VWS V13.01,2013-05-04 22:42:00,
2013-05-04 18:43:00,59.0,51.8,30.05,NE,40,2.0,13.0,77,0.00,,---,0.00,VWS V13.01,2013-05-04 22:43:00,
2013-05-04 18:44:00,59.0,52.8,30.05,East,88,7.0,13.0,80,0.00,,---,0.00,VWS V13.01,2013-05-04 22:44:00,
2013-05-04 18:46:00,58.9,52.1,30.05,East,80,4.0,13.0,78,0.00,,---,0.00,VWS V13.01,2013-05-04 22:46:00,
2013-05-04 18:47:00,58.8,52.0,30.05,NE,55,0.0,13.0,78,0.00,,---,0.00,VWS V13.01,2013-05-04 22:47:00,
2013-05-04 18:48:00,58.8,52.0,30.05,ESE,106,0.0,13.0,78,0.00,,---,0.00,VWS V13.01,2013-05-04 22:48:00,
2013-05-04 18:49:00,58.8,52.0,30.05,NE,47,2.0,13.0,78,0.00,,---,0.00,VWS V13.01,2013-05-04 22:49:00,
2013-05-04 18:51:00,58.8,52.0,30.05,ENE,72,0.0,13.0,78,0.00,,---,0.00,VWS V13.01,2013-05-04 22:51:00,
2013-05-04 18:52:00,58.8,52.0,30.05,NE,51,11.0,13.0,78,0.00,,---,0.00,VWS V13.01,2013-05-04 22:52:00,
2013-05-04 18:53:00,58.7,51.9,30.05,ENE,60,2.0,13.0,78,0.00,,---,0.00,VWS V13.01,2013-05-04 22:53:00,
2013-05-04 18:54:00,58.7,51.9,30.05,East,95,5.0,13.0,78,0.00,,---,0.00,VWS V13.01,2013-05-04 22:54:00,
2013-05-04 18:57:00,58.6,51.8,30.04,ENE,57,4.0,13.0,78,0.00,,---,0.00,VWS V13.01,2013-05-04 22:57:00,
2013-05-04 18:59:00,58.4,51.6,30.05,East,87,1.0,13.0,78,0.00,,---,0.00,VWS V13.01,2013-05-04 22:59:00,
2013-05-04 19:02:00,58.3,51.5,30.05,ENE,63,6.0,12.0,78,0.00,,---,0.00,VWS V13.01,2013-05-04 23:02:00,
2013-05-04 19:03:00,58.3,51.5,30.05,North,355,5.0,16.0,78,0.00,,---,0.00,VWS V13.01,2013-05-04 23:03:00,
2013-05-04 19:04:00,58.2,51.4,30.04,ESE,117,0.0,16.0,78,0.00,,---,0.00,VWS V13.01,2013-05-04 23:04:00,
2013-05-04 19:07:00,58.1,51.6,30.04,ENE,61,3.0,16.0,79,0.00,,---,0.00,VWS V13.01,2013-05-04 23:07:00,
2013-05-04 19:08:00,58.1,51.6,30.04,East,85,7.0,16.0,79,0.00,,---,0.00,VWS V13.01,2013-05-04 23:08:00,
2013-05-04 19:09:00,58.0,51.5,30.04,NE,51,5.0,16.0,79,0.00,,---,0.00,VWS V13.01,2013-05-04 23:09:00,
2013-05-04 19:12:00,57.9,51.4,30.04,NNE,32,3.0,16.0,79,0.00,,---,0.00,VWS V13.01,2013-05-04 23:12:00,
2013-05-04 19:13:00,57.9,51.4,30.04,East,94,6.0,16.0,79,0.00,,---,0.00,VWS V13.01,2013-05-04 23:13:00,
2013-05-04 19:14:00,57.9,51.4,30.04,East,96,4.0,16.0,79,0.00,,---,0.00,VWS V13.01,2013-05-04 23:14:00,
2013-05-04 19:17:00,57.8,51.3,30.04,NE,56,14.0,16.0,79,0.00,,---,0.00,VWS V13.01,2013-05-04 23:17:00,
2013-05-04 19:18:00,57.8,51.3,30.04,NNE,24,3.0,19.0,79,0.00,,---,0.00,VWS V13.01,2013-05-04 23:18:00,
2013-05-04 19:19:00,57.8,51.7,30.04,East,88,9.0,19.0,80,0.00,,---,0.00,VWS V13.01,2013-05-04 23:19:00,
2013-05-04 19:23:00,57.6,51.5,30.04,ENE,76,9.0,19.0,80,0.00,,---,0.00,VWS V13.01,2013-05-04 23:23:00,
2013-05-04 19:24:00,57.6,51.5,30.04,ENE,57,6.0,19.0,80,0.00,,---,0.00,VWS V13.01,2013-05-04 23:24:00,
2013-05-04 19:28:00,57.5,51.4,30.05,East,94,3.0,19.0,80,0.00,,---,0.00,VWS V13.01,2013-05-04 23:28:00,
2013-05-04 19:29:00,57.5,51.4,30.05,ENE,58,0.0,19.0,80,0.00,,---,0.00,VWS V13.01,2013-05-04 23:29:00,
2013-05-04 19:33:00,57.4,51.6,30.05,ENE,57,0.0,3.0,81,0.00,,---,0.00,VWS V13.01,2013-05-04 23:33:00,
2013-05-04 19:34:00,57.3,51.5,30.05,ENE,72,5.0,6.0,81,0.00,,---,0.00,VWS V13.01,2013-05-04 23:34:00,
2013-05-04 19:35:00,57.3,51.5,30.05,ENE,61,5.0,10.0,81,0.00,,---,0.00,VWS V13.01,2013-05-04 23:35:00,
2013-05-04 19:38:00,57.3,51.5,30.05,NE,42,3.0,15.0,81,0.00,,---,0.00,VWS V13.01,2013-05-04 23:38:00,
2013-05-04 19:39:00,57.3,51.5,30.05,NE,40,3.0,15.0,81,0.00,,---,0.00,VWS V13.01,2013-05-04 23:39:00,
2013-05-04 19:40:00,57.2,51.4,30.05,North,10,3.0,15.0,81,0.00,,---,0.00,VWS V13.01,2013-05-04 23:40:00,
2013-05-04 19:43:00,57.2,51.4,30.05,SE,128,0.0,15.0,81,0.00,,---,0.00,VWS V13.01,2013-05-04 23:43:00,
2013-05-04 19:44:00,57.2,51.8,30.05,NE,34,3.0,15.0,82,0.00,,---,0.00,VWS V13.01,2013-05-04 23:44:00,
2013-05-04 19:45:00,57.2,51.8,30.05,NE,36,0.0,15.0,82,0.00,,---,0.00,VWS V13.01,2013-05-04 23:45:00,
2013-05-04 19:48:00,57.1,51.7,30.06,ENE,65,1.0,15.0,82,0.00,,---,0.00,VWS V13.01,2013-05-04 23:48:00,
2013-05-04 19:49:00,57.1,51.7,30.06,East,83,7.0,15.0,82,0.00,,---,0.00,VWS V13.01,2013-05-04 23:49:00,
2013-05-04 19:50:00,57.1,51.7,30.06,NE,53,0.0,15.0,82,0.00,,---,0.00,VWS V13.01,2013-05-04 23:50:00,
2013-05-04 19:54:00,57.1,51.7,30.06,NE,36,5.0,15.0,82,0.00,,---,0.00,VWS V13.01,2013-05-04 23:54:00,
2013-05-04 19:55:00,57.0,51.6,30.06,ENE,65,2.0,15.0,82,0.00,,---,0.00,VWS V13.01,2013-05-04 23:55:00,
2013-05-04 19:59:00,57.0,51.6,30.06,NNE,33,3.0,15.0,82,0.00,,---,0.00,VWS V13.01,2013-05-04 23:59:00,
2013-05-04 20:00:00,56.9,51.5,30.06,ENE,71,0.0,15.0,82,0.00,,---,0.00,VWS V13.01,2013-05-05 00:00:00,
2013-05-04 20:04:00,56.9,51.5,30.06,NE,38,5.0,11.0,82,0.00,,---,0.00,VWS V13.01,2013-05-05 00:04:00,
2013-05-04 20:05:00,56.9,51.5,30.06,NE,35,6.0,11.0,82,0.00,,---,0.00,VWS V13.01,2013-05-05 00:05:00,
2013-05-04 20:06:00,56.9,51.5,30.06,East,85,1.0,11.0,82,0.00,,---,0.00,VWS V13.01,2013-05-05 00:06:00,
2013-05-04 20:09:00,56.8,51.4,30.05,East,79,3.0,14.0,82,0.00,,---,0.00,VWS V13.01,2013-05-05 00:09:00,
2013-05-04 20:10:00,56.8,51.7,30.06,NE,34,6.0,14.0,83,0.00,,---,0.00,VWS V13.01,2013-05-05 00:10:00,
2013-05-04 20:11:00,56.8,51.7,30.06,East,83,2.0,14.0,83,0.00,,---,0.00,VWS V13.01,2013-05-05 00:11:00,
2013-05-04 20:14:00,56.7,51.6,30.06,NE,46,12.0,14.0,83,0.00,,---,0.00,VWS V13.01,2013-05-05 00:14:00,
2013-05-04 20:15:00,56.7,51.6,30.06,ENE,59,3.0,14.0,83,0.00,,---,0.00,VWS V13.01,2013-05-05 00:15:00,
2013-05-04 20:16:00,56.7,51.6,30.06,East,88,5.0,14.0,83,0.00,,---,0.00,VWS V13.01,2013-05-05 00:16:00,
2013-05-04 20:19:00,56.6,51.5,30.06,NNE,19,1.0,14.0,83,0.00,,---,0.00,VWS V13.01,2013-05-05 00:19:00,
2013-05-04 20:20:00,56.6,51.5,30.06,NE,34,3.0,14.0,83,0.00,,---,0.00,VWS V13.01,2013-05-05 00:20:00,
2013-05-04 20:21:00,56.6,51.5,30.06,ENE,74,4.0,14.0,83,0.00,,---,0.00,VWS V13.01,2013-05-05 00:21:00,
2013-05-04 20:24:00,56.6,51.5,30.06,ENE,58,1.0,15.0,83,0.00,,---,0.00,VWS V13.01,2013-05-05 00:24:00,
2013-05-04 20:25:00,56.6,51.5,30.06,ENE,76,2.0,15.0,83,0.00,,---,0.00,VWS V13.01,2013-05-05 00:25:00,
2013-05-04 20:26:00,56.6,51.8,30.06,NE,43,0.0,15.0,84,0.00,,---,0.00,VWS V13.01,2013-05-05 00:26:00,
2013-05-04 20:29:00,56.6,51.8,30.06,ENE,59,1.0,15.0,84,0.00,,---,0.00,VWS V13.01,2013-05-05 00:29:00,
2013-05-04 20:30:00,56.6,51.8,30.06,ENE,59,6.0,15.0,84,0.00,,---,0.00,VWS V13.01,2013-05-05 00:30:00,
2013-05-04 20:31:00,56.6,51.8,30.06,ENE,61,5.0,15.0,84,0.00,,---,0.00,VWS V13.01,2013-05-05 00:31:00,
2013-05-04 20:35:00,56.5,52.0,30.06,ENE,69,4.0,9.0,85,0.00,,---,0.00,VWS V13.01,2013-05-05 00:35:00,
2013-05-04 20:36:00,56.4,52.0,30.06,ESE,109,0.0,9.0,85,0.00,,---,0.00,VWS V13.01,2013-05-05 00:36:00,
2013-05-04 20:37:00,56.4,52.0,30.06,ESE,109,0.0,9.0,85,0.00,,---,0.00,VWS V13.01,2013-05-05 00:37:00,
2013-05-04 20:40:00,56.4,52.3,30.06,NE,46,9.0,10.0,86,0.00,,---,0.00,VWS V13.01,2013-05-05 00:40:00,
2013-05-04 20:41:00,56.3,52.2,30.06,East,98,1.0,10.0,86,0.00,,---,0.00,VWS V13.01,2013-05-05 00:41:00,
2013-05-04 20:42:00,56.3,52.2,30.06,East,98,0.0,10.0,86,0.00,,---,0.00,VWS V13.01,2013-05-05 00:42:00,
2013-05-04 20:45:00,56.2,52.1,30.06,East,90,3.0,10.0,86,0.00,,---,0.00,VWS V13.01,2013-05-05 00:45:00,
2013-05-04 20:46:00,56.2,52.4,30.06,ENE,71,5.0,10.0,87,0.00,,---,0.00,VWS V13.01,2013-05-05 00:46:00,
2013-05-04 20:47:00,56.2,52.4,30.06,North,355,1.0,10.0,87,0.00,,---,0.00,VWS V13.01,2013-05-05 00:47:00,
2013-05-04 20:50:00,56.1,52.3,30.06,NE,49,0.0,10.0,87,0.00,,---,0.00,VWS V13.01,2013-05-05 00:50:00,
2013-05-04 20:51:00,56.0,52.2,30.06,North,5,1.0,10.0,87,0.00,,---,0.00,VWS V13.01,2013-05-05 00:51:00,
2013-05-04 20:52:00,56.0,52.2,30.06,East,91,0.0,10.0,87,0.00,,---,0.00,VWS V13.01,2013-05-05 00:52:00,
2013-05-04 20:55:00,55.9,52.4,30.06,East,86,5.0,10.0,88,0.00,,---,0.00,VWS V13.01,2013-05-05 00:55:00,
2013-05-04 20:56:00,55.9,52.4,30.06,ESE,123,5.0,10.0,88,0.00,,---,0.00,VWS V13.01,2013-05-05 00:56:00,
2013-05-04 20:57:00,55.8,52.3,30.06,ENE,63,0.0,10.0,88,0.00,,---,0.00,VWS V13.01,2013-05-05 00:57:00,
2013-05-04 21:00:00,55.7,52.2,30.06,NE,51,2.0,11.0,88,0.00,,---,0.00,VWS V13.01,2013-05-05 01:00:00,
2013-05-04 21:01:00,55.6,52.1,30.06,ENE,67,4.0,11.0,88,0.00,,---,0.00,VWS V13.01,2013-05-05 01:01:00,
2013-05-04 21:02:00,55.6,52.4,30.06,ENE,72,5.0,5.0,89,0.00,,---,0.00,VWS V13.01,2013-05-05 01:02:00,
2013-05-04 21:06:00,55.5,52.3,30.06,East,79,0.0,5.0,89,0.00,,---,0.00,VWS V13.01,2013-05-05 01:06:00,
2013-05-04 21:07:00,55.5,52.3,30.06,NE,52,0.0,5.0,89,0.00,,---,0.00,VWS V13.01,2013-05-05 01:07:00,
2013-05-04 21:08:00,55.5,52.3,30.06,NE,52,0.0,5.0,89,0.00,,---,0.00,VWS V13.01,2013-05-05 01:08:00,
2013-05-04 21:11:00,55.4,52.2,30.06,ESE,103,6.0,7.0,89,0.01,,---,0.01,VWS V13.01,2013-05-05 01:11:00,
2013-05-04 21:12:00,55.4,52.2,30.06,ENE,67,4.0,7.0,89,0.01,,---,0.01,VWS V13.01,2013-05-05 01:12:00,
2013-05-04 21:13:00,55.4,52.2,30.06,ENE,69,3.0,7.0,89,0.01,,---,0.01,VWS V13.01,2013-05-05 01:13:00,
2013-05-04 21:16:00,55.3,52.4,30.06,ESE,107,1.0,7.0,90,0.01,,---,0.01,VWS V13.01,2013-05-05 01:16:00,
2013-05-04 21:17:00,55.3,52.4,30.06,East,89,6.0,10.0,90,0.01,,---,0.01,VWS V13.01,2013-05-05 01:17:00,
2013-05-04 21:18:00,55.3,52.4,30.06,ENE,73,0.0,10.0,90,0.01,,---,0.01,VWS V13.01,2013-05-05 01:18:00,
2013-05-04 21:21:00,55.2,52.3,30.06,East,85,0.0,10.0,90,0.01,,---,0.01,VWS V13.01,2013-05-05 01:21:00,
2013-05-04 21:22:00,55.2,52.3,30.06,East,90,1.0,10.0,90,0.01,,---,0.01,VWS V13.01,2013-05-05 01:22:00,
2013-05-04 21:23:00,55.1,52.5,30.06,East,90,0.0,10.0,91,0.01,,---,0.01,VWS V13.01,2013-05-05 01:23:00,
2013-05-04 21:26:00,55.1,52.5,30.06,ENE,74,5.0,10.0,91,0.01,,---,0.01,VWS V13.01,2013-05-05 01:26:00,
2013-05-04 21:27:00,55.1,52.5,30.06,ENE,65,7.0,10.0,91,0.01,,---,0.01,VWS V13.01,2013-05-05 01:27:00,
2013-05-04 21:28:00,55.1,52.5,30.06,ENE,76,6.0,10.0,91,0.01,,---,0.01,VWS V13.01,2013-05-05 01:28:00,
2013-05-04 21:32:00,55.0,52.4,30.06,ENE,74,0.0,0.0,91,0.01,,---,0.01,VWS V13.01,2013-05-05 01:32:00,
2013-05-04 21:33:00,55.0,52.4,30.07,ENE,74,0.0,0.0,91,0.01,,---,0.01,VWS V13.01,2013-05-05 01:33:00,
2013-05-04 21:37:00,54.9,52.3,30.07,East,79,2.0,6.0,91,0.01,,---,0.01,VWS V13.01,2013-05-05 01:37:00,
2013-05-04 21:38:00,54.9,52.3,30.07,ENE,65,0.0,6.0,91,0.01,,---,0.01,VWS V13.01,2013-05-05 01:38:00,
2013-05-04 21:42:00,54.9,52.6,30.07,ENE,67,3.0,6.0,92,0.01,,---,0.01,VWS V13.01,2013-05-05 01:42:00,
2013-05-04 21:43:00,54.9,52.6,30.07,East,80,0.0,6.0,92,0.01,,---,0.01,VWS V13.01,2013-05-05 01:43:00,
2013-05-04 21:47:00,54.8,52.5,30.07,ENE,67,4.0,6.0,92,0.01,,---,0.01,VWS V13.01,2013-05-05 01:47:00,
2013-05-04 21:48:00,54.8,52.5,30.07,East,93,3.0,6.0,92,0.01,,---,0.01,VWS V13.01,2013-05-05 01:48:00,
2013-05-04 21:49:00,54.8,52.5,30.06,ENE,76,2.0,7.0,92,0.01,,---,0.01,VWS V13.01,2013-05-05 01:49:00,
2013-05-04 21:52:00,54.8,52.5,30.07,ESE,106,3.0,7.0,92,0.01,,---,0.01,VWS V13.01,2013-05-05 01:52:00,
2013-05-04 21:53:00,54.8,52.5,30.07,ESE,106,0.0,7.0,92,0.01,,---,0.01,VWS V13.01,2013-05-05 01:53:00,
2013-05-04 21:54:00,54.8,52.5,30.07,SE,134,0.0,7.0,92,0.01,,---,0.01,VWS V13.01,2013-05-05 01:54:00,
2013-05-04 21:57:00,54.7,52.4,30.06,NE,38,0.0,11.0,92,0.01,,---,0.01,VWS V13.01,2013-05-05 01:57:00,
2013-05-04 21:58:00,54.7,52.4,30.06,East,81,6.0,11.0,92,0.01,,---,0.01,VWS V13.01,2013-05-05 01:58:00,
2013-05-04 22:00:00,54.7,52.4,30.06,ENE,61,3.0,11.0,92,0.01,,---,0.01,VWS V13.01,2013-05-05 02:00:00,
2013-05-04 22:03:00,54.6,52.6,30.06,ENE,57,7.0,7.0,93,0.01,,---,0.01,VWS V13.01,2013-05-05 02:03:00,
2013-05-04 22:04:00,54.6,52.6,30.06,ENE,57,4.0,10.0,93,0.01,,---,0.01,VWS V13.01,2013-05-05 02:04:00,
2013-05-04 22:05:00,54.6,52.6,30.06,ENE,60,4.0,10.0,93,0.01,,---,0.01,VWS V13.01,2013-05-05 02:05:00,
2013-05-04 22:08:00,54.5,52.5,30.06,ENE,71,4.0,10.0,93,0.01,,---,0.01,VWS V13.01,2013-05-05 02:08:00,
2013-05-04 22:09:00,54.5,52.5,30.06,ENE,77,3.0,10.0,93,0.01,,---,0.01,VWS V13.01,2013-05-05 02:09:00,
2013-05-04 22:10:00,54.5,52.5,30.06,SE,132,3.0,10.0,93,0.01,,---,0.01,VWS V13.01,2013-05-05 02:10:00,
2013-05-04 22:13:00,54.4,52.4,30.06,East,80,4.0,10.0,93,0.01,,---,0.01,VWS V13.01,2013-05-05 02:13:00,
2013-05-04 22:14:00,54.4,52.4,30.06,East,91,6.0,10.0,93,0.01,,---,0.01,VWS V13.01,2013-05-05 02:14:00,
2013-05-04 22:15:00,54.4,52.4,30.06,ESE,105,6.0,10.0,93,0.01,,---,0.01,VWS V13.01,2013-05-05 02:15:00,
2013-05-04 22:16:00,54.4,52.4,30.06,East,88,0.0,10.0,93,0.01,,---,0.01,VWS V13.01,2013-05-05 02:16:00,
2013-05-04 22:19:00,54.3,52.3,30.06,East,79,0.0,10.0,93,0.01,,---,0.01,VWS V13.01,2013-05-05 02:19:00,
2013-05-04 22:20:00,54.3,52.3,30.06,ENE,76,0.0,10.0,93,0.01,,---,0.01,VWS V13.01,2013-05-05 02:20:00,
2013-05-04 22:21:00,54.2,52.2,30.06,ESE,120,4.0,11.0,93,0.01,,---,0.01,VWS V13.01,2013-05-05 02:21:00,
2013-05-04 22:24:00,54.2,52.2,30.06,ENE,62,3.0,11.0,93,0.01,,---,0.01,VWS V13.01,2013-05-05 02:24:00,
2013-05-04 22:25:00,54.2,52.2,30.06,ENE,61,2.0,11.0,93,0.01,,---,0.01,VWS V13.01,2013-05-05 02:25:00,
2013-05-04 22:26:00,54.1,52.1,30.06,East,98,4.0,11.0,93,0.01,,---,0.01,VWS V13.01,2013-05-05 02:26:00,
2013-05-04 22:30:00,54.1,52.1,30.06,ENE,70,6.0,11.0,93,0.01,,---,0.01,VWS V13.01,2013-05-05 02:30:00,
2013-05-04 22:32:00,54.0,52.0,30.06,ESE,103,1.0,4.0,93,0.01,,---,0.01,VWS V13.01,2013-05-05 02:32:00,
2013-05-04 22:35:00,53.9,51.9,30.06,ENE,62,1.0,6.0,93,0.00,,---,0.01,VWS V13.01,2013-05-05 02:35:00,
2013-05-04 22:37:00,53.9,51.9,30.06,East,92,0.0,6.0,93,0.00,,---,0.01,VWS V13.01,2013-05-05 02:37:00,
2013-05-04 22:40:00,53.9,51.9,30.06,ESE,107,2.0,7.0,93,0.00,,---,0.01,VWS V13.01,2013-05-05 02:40:00,
2013-05-04 22:41:00,53.9,51.9,30.06,ESE,104,0.0,7.0,93,0.00,,---,0.01,VWS V13.01,2013-05-05 02:41:00,
2013-05-04 22:42:00,53.8,51.8,30.06,NE,56,4.0,7.0,93,0.00,,---,0.01,VWS V13.01,2013-05-05 02:42:00,
2013-05-04 22:45:00,53.8,51.8,30.06,ENE,69,0.0,13.0,93,0.00,,---,0.01,VWS V13.01,2013-05-05 02:45:00,
2013-05-04 22:46:00,53.8,51.8,30.06,ESE,117,5.0,13.0,93,0.00,,---,0.01,VWS V13.01,2013-05-05 02:46:00,
2013-05-04 22:47:00,53.7,51.7,30.06,ENE,76,0.0,13.0,93,0.00,,---,0.01,VWS V13.01,2013-05-05 02:47:00,
2013-05-04 22:50:00,53.7,51.7,30.06,ENE,73,3.0,13.0,93,0.00,,---,0.01,VWS V13.01,2013-05-05 02:50:00,
2013-05-04 22:51:00,53.7,51.7,30.06,ENE,59,10.0,13.0,93,0.00,,---,0.01,VWS V13.01,2013-05-05 02:51:00,
2013-05-04 22:52:00,53.7,51.7,30.06,ENE,59,5.0,13.0,93,0.00,,---,0.01,VWS V13.01,2013-05-05 02:52:00,
2013-05-04 22:55:00,53.7,51.7,30.06,NE,55,0.0,13.0,93,0.00,,---,0.01,VWS V13.01,2013-05-05 02:55:00,
2013-05-04 22:56:00,53.7,51.7,30.06,NE,56,0.0,13.0,93,0.00,,---,0.01,VWS V13.01,2013-05-05 02:56:00,
2013-05-04 22:57:00,53.7,51.7,30.06,ENE,63,0.0,13.0,93,0.00,,---,0.01,VWS V13.01,2013-05-05 02:57:00,
2013-05-04 23:00:00,53.6,51.6,30.05,ENE,65,2.0,13.0,93,0.00,,---,0.01,VWS V13.01,2013-05-05 03:00:00,
2013-05-04 23:01:00,53.7,51.7,30.05,ENE,71,0.0,13.0,93,0.00,,---,0.01,VWS V13.01,2013-05-05 03:01:00,
2013-05-04 23:02:00,53.7,51.7,30.05,ENE,58,11.0,14.0,93,0.00,,---,0.01,VWS V13.01,2013-05-05 03:02:00,
2013-05-04 23:05:00,53.6,51.6,30.05,ENE,61,2.0,14.0,93,0.00,,---,0.01,VWS V13.01,2013-05-05 03:05:00,
2013-05-04 23:06:00,53.6,51.6,30.05,ENE,59,5.0,14.0,93,0.00,,---,0.01,VWS V13.01,2013-05-05 03:06:00,
2013-05-04 23:07:00,53.7,51.4,30.05,ESE,105,0.0,14.0,92,0.00,,---,0.01,VWS V13.01,2013-05-05 03:07:00,
2013-05-04 23:10:00,53.6,51.3,30.05,East,93,3.0,14.0,92,0.00,,---,0.01,VWS V13.01,2013-05-05 03:10:00,
2013-05-04 23:11:00,53.7,51.4,30.05,NE,46,3.0,14.0,92,0.00,,---,0.01,VWS V13.01,2013-05-05 03:11:00,
2013-05-04 23:12:00,53.6,51.3,30.05,NE,51,0.0,14.0,92,0.00,,---,0.01,VWS V13.01,2013-05-05 03:12:00,
2013-05-04 23:16:00,53.7,51.4,30.05,East,82,0.0,14.0,92,0.00,,---,0.01,VWS V13.01,2013-05-05 03:16:00,
2013-05-04 23:17:00,53.7,51.4,30.05,ENE,78,5.0,14.0,92,0.00,,---,0.01,VWS V13.01,2013-05-05 03:17:00,
2013-05-04 23:21:00,53.7,51.4,30.05,ENE,65,5.0,14.0,92,0.00,,---,0.01,VWS V13.01,2013-05-05 03:21:00,
2013-05-04 23:22:00,53.7,51.4,30.05,East,90,6.0,14.0,92,0.00,,---,0.01,VWS V13.01,2013-05-05 03:22:00,
2013-05-04 23:23:00,53.7,51.4,30.05,ENE,69,0.0,14.0,92,0.00,,---,0.01,VWS V13.01,2013-05-05 03:23:00,
2013-05-04 23:26:00,53.7,51.4,30.05,NE,41,4.0,14.0,92,0.00,,---,0.01,VWS V13.01,2013-05-05 03:26:00,
2013-05-04 23:27:00,53.7,51.4,30.05,East,93,2.0,14.0,92,0.00,,---,0.01,VWS V13.01,2013-05-05 03:27:00,
2013-05-04 23:28:00,53.7,51.4,30.05,ENE,78,2.0,14.0,92,0.00,,---,0.01,VWS V13.01,2013-05-05 03:28:00,
2013-05-04 23:31:00,53.7,51.4,30.05,NE,49,4.0,4.0,92,0.00,,---,0.01,VWS V13.01,2013-05-05 03:31:00,
2013-05-04 23:32:00,53.7,51.4,30.05,ESE,118,0.0,7.0,92,0.00,,---,0.01,VWS V13.01,2013-05-05 03:32:00,
2013-05-04 23:33:00,53.7,51.4,30.05,ENE,72,4.0,7.0,92,0.00,,---,0.01,VWS V13.01,2013-05-05 03:33:00,
2013-05-04 23:34:00,53.7,51.4,30.05,ENE,71,0.0,10.0,92,0.00,,---,0.01,VWS V13.01,2013-05-05 03:34:00,
2013-05-04 23:36:00,53.7,51.4,30.05,East,84,0.0,10.0,92,0.00,,---,0.01,VWS V13.01,2013-05-05 03:36:00,
2013-05-04 23:37:00,53.7,51.4,30.05,ENE,59,5.0,10.0,92,0.00,,---,0.01,VWS V13.01,2013-05-05 03:37:00,
2013-05-04 23:38:00,53.8,51.5,30.05,East,82,2.0,10.0,92,0.00,,---,0.01,VWS V13.01,2013-05-05 03:38:00,
2013-05-04 23:39:00,53.8,51.5,30.05,NNE,14,6.0,10.0,92,0.00,,---,0.01,VWS V13.01,2013-05-05 03:39:00,
2013-05-04 23:41:00,53.8,51.2,30.05,ENE,61,3.0,12.0,91,0.00,,---,0.01,VWS V13.01,2013-05-05 03:41:00,
2013-05-04 23:42:00,53.8,51.2,30.05,ENE,76,0.0,12.0,91,0.00,,---,0.01,VWS V13.01,2013-05-05 03:42:00,
2013-05-04 23:43:00,53.8,51.2,30.05,ENE,77,3.0,12.0,91,0.00,,---,0.01,VWS V13.01,2013-05-05 03:43:00,
2013-05-04 23:44:00,53.8,51.2,30.05,NE,41,3.0,12.0,91,0.00,,---,0.01,VWS V13.01,2013-05-05 03:44:00,
2013-05-04 23:47:00,53.8,51.2,30.05,ENE,65,7.0,14.0,91,0.00,,---,0.01,VWS V13.01,2013-05-05 03:47:00,
2013-05-04 23:48:00,53.8,51.2,30.05,SE,126,0.0,14.0,91,0.00,,---,0.01,VWS V13.01,2013-05-05 03:48:00,
2013-05-04 23:49:00,53.8,51.2,30.05,ENE,63,5.0,14.0,91,0.00,,---,0.01,VWS V13.01,2013-05-05 03:49:00,
2013-05-04 23:52:00,53.9,51.3,30.06,NE,52,4.0,14.0,91,0.00,,---,0.01,VWS V13.01,2013-05-05 03:52:00,
2013-05-04 23:53:00,53.9,51.3,30.06,ESE,105,0.0,14.0,91,0.00,,---,0.01,VWS V13.01,2013-05-05 03:53:00,
2013-05-04 23:54:00,53.9,51.3,30.06,ESE,106,0.0,14.0,91,0.00,,---,0.01,VWS V13.01,2013-05-05 03:54:00,
2013-05-04 23:57:00,53.9,51.3,30.06,ENE,62,5.0,14.0,91,0.00,,---,0.01,VWS V13.01,2013-05-05 03:57:00,
2013-05-04 23:58:00,53.9,51.0,30.06,East,80,0.0,14.0,90,0.00,,---,0.01,VWS V13.01,2013-05-05 03:58:00,